Time,TemperatureF,DewpointF,PressureIn,WindDirection,WindDirectionDegrees,WindSpeedMPH,WindSpeedGustMPH,Humidity,HourlyPrecipIn,Conditions,Clouds,dailyrainin,SoftwareType,DateUTC
2013-03-28 00:00:00,28.9,22.3,30.27,South,180,0.0,0.0,76,0.00,,---,0.00,VWS V14.01,2013-03-28 05:00:00,
2013-03-28 00:02:00,28.8,22.2,30.27,South,180,0.0,0.0,76,0.00,,---,0.00,VWS V14.01,2013-03-28 05:02:00,
2013-03-28 00:03:00,28.8,22.5,30.27,South,180,0.0,0.0,77,0.00,,---,0.00,VWS V14.01,2013-03-28 05:03:00,
2013-03-28 00:05:00,28.8,22.2,30.27,South,180,0.0,0.0,76,0.00,,---,0.00,VWS V14.01,2013-03-28 05:05:00,
2013-03-28 00:07:00,28.8,22.2,30.28,South,180,0.0,0.0,76,0.00,,---,0.00,VWS V14.01,2013-03-28 05:07:00,
2013-03-28 00:08:00,28.8,22.2,30.27,South,180,0.0,0.0,76,0.00,,---,0.00,VWS V14.01,2013-03-28 05:08:00,
2013-03-28 00:10:00,28.7,22.1,30.27,South,180,0.0,0.0,76,0.00,,---,0.00,VWS V14.01,2013-03-28 05:10:00,
2013-03-28 00:12:00,28.5,21.9,30.28,South,180,0.0,0.0,76,0.00,,---,0.00,VWS V14.01,2013-03-28 05:12:00,
2013-03-28 00:13:00,28.4,21.8,30.28,South,180,0.0,0.0,76,0.00,,---,0.00,VWS V14.01,2013-03-28 05:13:00,
2013-03-28 00:15:00,28.2,21.6,30.28,South,180,0.0,0.0,76,0.00,,---,0.00,VWS V14.01,2013-03-28 05:15:00,
2013-03-28 00:18:00,28.0,21.7,30.28,South,180,2.0,2.0,77,0.00,,---,0.00,VWS V14.01,2013-03-28 05:18:00,
2013-03-28 00:20:00,27.9,21.9,30.27,South,180,0.0,2.0,78,0.00,,---,0.00,VWS V14.01,2013-03-28 05:20:00,
2013-03-28 00:21:00,27.8,21.9,30.28,South,180,0.0,2.0,78,0.00,,---,0.00,VWS V14.01,2013-03-28 05:21:00,
2013-03-28 00:23:00,27.8,21.9,30.28,South,180,0.0,2.0,78,0.00,,---,0.00,VWS V14.01,2013-03-28 05:23:00,
2013-03-28 00:24:00,27.8,21.9,30.27,South,180,0.0,2.0,78,0.00,,---,0.00,VWS V14.01,2013-03-28 05:24:00,
2013-03-28 00:25:00,27.8,22.1,30.28,South,180,0.0,2.0,79,0.00,,---,0.00,VWS V14.01,2013-03-28 05:25:00,
2013-03-28 00:27:00,27.9,22.5,30.27,South,180,0.0,2.0,80,0.00,,---,0.00,VWS V14.01,2013-03-28 05:27:00,
2013-03-28 00:28:00,27.9,22.2,30.27,South,180,0.0,2.0,79,0.00,,---,0.00,VWS V14.01,2013-03-28 05:28:00,
2013-03-28 00:29:00,28.0,22.3,30.27,South,180,0.0,2.0,79,0.00,,---,0.00,VWS V14.01,2013-03-28 05:29:00,
2013-03-28 00:30:00,28.1,22.4,30.27,South,180,0.0,2.0,79,0.00,,---,0.00,VWS V14.01,2013-03-28 05:30:00,
2013-03-28 00:32:00,28.4,22.7,30.27,South,180,0.0,0.0,79,0.00,,---,0.00,VWS V14.01,2013-03-28 05:32:00,
2013-03-28 00:33:00,28.4,23.0,30.27,South,180,0.0,0.0,80,0.00,,---,0.00,VWS V14.01,2013-03-28 05:33:00,
2013-03-28 00:36:00,28.5,23.1,30.27,South,180,0.0,0.0,80,0.00,,---,0.00,VWS V14.01,2013-03-28 05:36:00,
2013-03-28 00:37:00,28.9,22.9,30.27,South,180,0.0,0.0,78,0.00,,---,0.00,VWS V14.01,2013-03-28 05:37:00,
2013-03-28 00:38:00,28.9,22.9,30.28,South,180,0.0,0.0,78,0.00,,---,0.00,VWS V14.01,2013-03-28 05:38:00,
2013-03-28 00:42:00,29.2,23.5,30.28,South,180,0.0,0.0,79,0.00,,---,0.00,VWS V14.01,2013-03-28 05:42:00,
2013-03-28 00:43:00,29.1,23.7,30.27,South,180,0.0,0.0,80,0.00,,---,0.00,VWS V14.01,2013-03-28 05:43:00,
2013-03-28 00:47:00,29.0,23.9,30.28,South,180,0.0,0.0,81,0.00,,---,0.00,VWS V14.01,2013-03-28 05:47:00,
2013-03-28 00:48:00,28.9,24.1,30.28,South,180,0.0,0.0,82,0.00,,---,0.00,VWS V14.01,2013-03-28 05:48:00,
2013-03-28 00:52:00,28.5,23.7,30.28,South,180,2.0,2.0,82,0.00,,---,0.00,VWS V14.01,2013-03-28 05:52:00,
2013-03-28 00:53:00,28.4,23.9,30.28,South,180,2.0,2.0,83,0.00,,---,0.00,VWS V14.01,2013-03-28 05:53:00,
2013-03-28 00:57:00,27.6,23.1,30.27,South,180,1.0,2.0,83,0.00,,---,0.00,VWS V14.01,2013-03-28 05:57:00,
2013-03-28 00:58:00,27.5,23.3,30.28,South,180,1.0,2.0,84,0.00,,---,0.00,VWS V14.01,2013-03-28 05:58:00,
2013-03-28 01:02:00,27.0,23.1,30.28,South,180,0.0,0.0,85,0.00,,---,0.00,VWS V14.01,2013-03-28 06:02:00,
2013-03-28 01:03:00,27.0,23.1,30.28,South,180,0.0,0.0,85,0.00,,---,0.00,VWS V14.01,2013-03-28 06:03:00,
2013-03-28 01:04:00,27.0,23.1,30.28,South,180,0.0,0.0,85,0.00,,---,0.00,VWS V14.01,2013-03-28 06:04:00,
2013-03-28 01:07:00,26.9,23.3,30.28,South,180,0.0,0.0,86,0.00,,---,0.00,VWS V14.01,2013-03-28 06:07:00,
2013-03-28 01:08:00,26.9,23.3,30.28,South,180,0.0,0.0,86,0.00,,---,0.00,VWS V14.01,2013-03-28 06:08:00,
2013-03-28 01:09:00,26.8,23.2,30.28,South,180,0.0,0.0,86,0.00,,---,0.00,VWS V14.01,2013-03-28 06:09:00,
2013-03-28 01:12:00,26.7,23.1,30.28,South,180,0.0,0.0,86,0.00,,---,0.00,VWS V14.01,2013-03-28 06:12:00,
2013-03-28 01:13:00,26.7,23.1,30.28,South,180,0.0,0.0,86,0.00,,---,0.00,VWS V14.01,2013-03-28 06:13:00,
2013-03-28 01:14:00,26.8,23.5,30.28,South,180,0.0,0.0,87,0.00,,---,0.00,VWS V14.01,2013-03-28 06:14:00,
2013-03-28 01:18:00,27.1,23.5,30.28,South,180,0.0,0.0,86,0.00,,---,0.00,VWS V14.01,2013-03-28 06:18:00,
2013-03-28 01:19:00,27.1,23.5,30.28,South,180,0.0,0.0,86,0.00,,---,0.00,VWS V14.01,2013-03-28 06:19:00,
2013-03-28 01:23:00,27.3,23.7,30.28,South,180,0.0,0.0,86,0.00,,---,0.00,VWS V14.01,2013-03-28 06:23:00,
2013-03-28 01:24:00,27.4,23.8,30.28,South,180,0.0,0.0,86,0.00,,---,0.00,VWS V14.01,2013-03-28 06:24:00,
2013-03-28 01:28:00,27.5,23.6,30.28,South,180,0.0,0.0,85,0.00,,---,0.00,VWS V14.01,2013-03-28 06:28:00,
2013-03-28 01:29:00,27.6,23.4,30.28,South,180,0.0,0.0,84,0.00,,---,0.00,VWS V14.01,2013-03-28 06:29:00,
2013-03-28 01:33:00,27.6,23.4,30.28,South,180,0.0,0.0,84,0.00,,---,0.00,VWS V14.01,2013-03-28 06:33:00,
2013-03-28 01:34:00,27.7,23.5,30.28,South,180,0.0,0.0,84,0.00,,---,0.00,VWS V14.01,2013-03-28 06:34:00,
2013-03-28 01:38:00,27.6,23.4,30.28,South,180,0.0,0.0,84,0.00,,---,0.00,VWS V14.01,2013-03-28 06:38:00,
2013-03-28 01:39:00,27.6,23.4,30.28,South,180,0.0,0.0,84,0.00,,---,0.00,VWS V14.01,2013-03-28 06:39:00,
2013-03-28 01:43:00,27.5,23.3,30.28,South,180,0.0,0.0,84,0.00,,---,0.00,VWS V14.01,2013-03-28 06:43:00,
2013-03-28 01:44:00,27.5,23.6,30.28,South,180,0.0,0.0,85,0.00,,---,0.00,VWS V14.01,2013-03-28 06:44:00,
2013-03-28 01:49:00,27.5,23.6,30.28,South,180,0.0,0.0,85,0.00,,---,0.00,VWS V14.01,2013-03-28 06:49:00,
2013-03-28 01:54:00,27.5,23.3,30.28,South,180,0.0,0.0,84,0.00,,---,0.00,VWS V14.01,2013-03-28 06:54:00,
2013-03-28 01:59:00,27.4,23.5,30.28,South,180,0.0,0.0,85,0.00,,---,0.00,VWS V14.01,2013-03-28 06:59:00,
2013-03-28 02:00:00,27.4,23.5,30.28,South,180,0.0,0.0,85,0.00,,---,0.00,VWS V14.01,2013-03-28 07:00:00,
2013-03-28 02:04:00,27.4,23.2,30.28,South,180,0.0,0.0,84,0.00,,---,0.00,VWS V14.01,2013-03-28 07:04:00,
2013-03-28 02:05:00,27.4,23.2,30.28,South,180,0.0,0.0,84,0.00,,---,0.00,VWS V14.01,2013-03-28 07:05:00,
2013-03-28 02:09:00,27.2,23.0,30.27,South,180,0.0,0.0,84,0.00,,---,0.00,VWS V14.01,2013-03-28 07:09:00,
2013-03-28 02:10:00,27.1,23.2,30.27,South,180,0.0,0.0,85,0.00,,---,0.00,VWS V14.01,2013-03-28 07:10:00,
2013-03-28 02:14:00,27.1,23.2,30.27,South,180,0.0,0.0,85,0.00,,---,0.00,VWS V14.01,2013-03-28 07:14:00,
2013-03-28 02:15:00,27.0,23.1,30.27,South,180,0.0,0.0,85,0.00,,---,0.00,VWS V14.01,2013-03-28 07:15:00,
2013-03-28 02:19:00,26.9,23.3,30.27,South,180,0.0,0.0,86,0.00,,---,0.00,VWS V14.01,2013-03-28 07:19:00,
2013-03-28 02:20:00,27.0,23.4,30.27,South,180,0.0,0.0,86,0.00,,---,0.00,VWS V14.01,2013-03-28 07:20:00,
2013-03-28 02:24:00,27.0,22.8,30.27,South,180,0.0,0.0,84,0.00,,---,0.00,VWS V14.01,2013-03-28 07:24:00,
2013-03-28 02:25:00,27.1,22.9,30.27,South,180,0.0,0.0,84,0.00,,---,0.00,VWS V14.01,2013-03-28 07:25:00,
2013-03-28 02:29:00,27.0,22.5,30.27,South,180,0.0,0.0,83,0.00,,---,0.00,VWS V14.01,2013-03-28 07:29:00,
2013-03-28 02:30:00,27.0,22.5,30.27,South,180,0.0,0.0,83,0.00,,---,0.00,VWS V14.01,2013-03-28 07:30:00,
2013-03-28 02:34:00,26.9,22.7,30.27,South,180,0.0,0.0,84,0.00,,---,0.00,VWS V14.01,2013-03-28 07:34:00,
2013-03-28 02:35:00,26.8,22.6,30.27,South,180,0.0,0.0,84,0.00,,---,0.00,VWS V14.01,2013-03-28 07:35:00,
2013-03-28 02:36:00,26.8,22.9,30.27,South,180,0.0,0.0,85,0.00,,---,0.00,VWS V14.01,2013-03-28 07:36:00,
2013-03-28 02:39:00,26.7,23.1,30.27,South,180,0.0,0.0,86,0.00,,---,0.00,VWS V14.01,2013-03-28 07:39:00,
2013-03-28 02:40:00,26.7,23.1,30.27,South,180,0.0,0.0,86,0.00,,---,0.00,VWS V14.01,2013-03-28 07:40:00,
2013-03-28 02:41:00,26.7,22.8,30.27,South,180,0.0,0.0,85,0.00,,---,0.00,VWS V14.01,2013-03-28 07:41:00,
2013-03-28 02:42:00,26.6,22.7,30.27,South,180,0.0,0.0,85,0.00,,---,0.00,VWS V14.01,2013-03-28 07:42:00,
2013-03-28 02:44:00,26.6,22.7,30.27,South,180,0.0,0.0,85,0.00,,---,0.00,VWS V14.01,2013-03-28 07:44:00,
2013-03-28 02:45:00,26.6,22.7,30.27,South,180,0.0,0.0,85,0.00,,---,0.00,VWS V14.01,2013-03-28 07:45:00,
2013-03-28 02:47:00,26.5,22.6,30.27,South,180,0.0,0.0,85,0.00,,---,0.00,VWS V14.01,2013-03-28 07:47:00,
2013-03-28 02:49:00,26.5,22.9,30.27,South,180,0.0,0.0,86,0.00,,---,0.00,VWS V14.01,2013-03-28 07:49:00,
2013-03-28 02:50:00,26.5,22.9,30.27,South,180,0.0,0.0,86,0.00,,---,0.00,VWS V14.01,2013-03-28 07:50:00,
2013-03-28 02:52:00,26.5,22.9,30.27,South,180,0.0,0.0,86,0.00,,---,0.00,VWS V14.01,2013-03-28 07:52:00,
2013-03-28 02:54:00,26.4,22.8,30.27,South,180,0.0,0.0,86,0.00,,---,0.00,VWS V14.01,2013-03-28 07:54:00,
2013-03-28 02:55:00,26.3,22.7,30.27,South,180,0.0,0.0,86,0.00,,---,0.00,VWS V14.01,2013-03-28 07:55:00,
2013-03-28 02:57:00,26.3,22.7,30.27,South,180,0.0,0.0,86,0.00,,---,0.00,VWS V14.01,2013-03-28 07:57:00,
2013-03-28 02:59:00,26.2,22.6,30.27,South,180,0.0,0.0,86,0.00,,---,0.00,VWS V14.01,2013-03-28 07:59:00,
2013-03-28 03:00:00,26.1,22.5,30.27,South,180,0.0,0.0,86,0.00,,---,0.00,VWS V14.01,2013-03-28 08:00:00,
2013-03-28 03:02:00,26.1,22.8,30.27,South,180,0.0,0.0,87,0.00,,---,0.00,VWS V14.01,2013-03-28 08:02:00,
2013-03-28 03:04:00,26.0,22.7,30.27,South,180,0.0,0.0,87,0.00,,---,0.00,VWS V14.01,2013-03-28 08:04:00,
2013-03-28 03:06:00,25.9,22.6,30.27,South,180,0.0,0.0,87,0.00,,---,0.00,VWS V14.01,2013-03-28 08:06:00,
2013-03-28 03:07:00,25.9,22.6,30.27,South,180,0.0,0.0,87,0.00,,---,0.00,VWS V14.01,2013-03-28 08:07:00,
2013-03-28 03:08:00,25.9,22.6,30.27,South,180,0.0,0.0,87,0.00,,---,0.00,VWS V14.01,2013-03-28 08:08:00,
2013-03-28 03:10:00,25.8,22.5,30.27,South,180,0.0,0.0,87,0.00,,---,0.00,VWS V14.01,2013-03-28 08:10:00,
2013-03-28 03:11:00,25.8,22.5,30.27,South,180,0.0,0.0,87,0.00,,---,0.00,VWS V14.01,2013-03-28 08:11:00,
2013-03-28 03:12:00,25.8,22.7,30.27,South,180,0.0,0.0,88,0.00,,---,0.00,VWS V14.01,2013-03-28 08:12:00,
2013-03-28 03:13:00,25.8,22.7,30.27,South,180,0.0,0.0,88,0.00,,---,0.00,VWS V14.01,2013-03-28 08:13:00,
2013-03-28 03:15:00,25.9,22.8,30.28,South,180,0.0,0.0,88,0.00,,---,0.00,VWS V14.01,2013-03-28 08:15:00,
2013-03-28 03:17:00,25.8,22.7,30.27,South,180,0.0,0.0,88,0.00,,---,0.00,VWS V14.01,2013-03-28 08:17:00,
2013-03-28 03:18:00,25.8,22.7,30.27,South,180,0.0,0.0,88,0.00,,---,0.00,VWS V14.01,2013-03-28 08:18:00,
2013-03-28 03:20:00,25.8,22.5,30.27,South,180,0.0,0.0,87,0.00,,---,0.00,VWS V14.01,2013-03-28 08:20:00,
2013-03-28 03:22:00,25.7,22.4,30.28,South,180,0.0,0.0,87,0.00,,---,0.00,VWS V14.01,2013-03-28 08:22:00,
2013-03-28 03:23:00,25.7,22.4,30.28,South,180,0.0,0.0,87,0.00,,---,0.00,VWS V14.01,2013-03-28 08:23:00,
2013-03-28 03:25:00,25.6,22.3,30.28,South,180,0.0,0.0,87,0.00,,---,0.00,VWS V14.01,2013-03-28 08:25:00,
2013-03-28 03:27:00,25.5,22.2,30.28,South,180,0.0,0.0,87,0.00,,---,0.00,VWS V14.01,2013-03-28 08:27:00,
2013-03-28 03:28:00,25.4,22.1,30.28,South,180,0.0,0.0,87,0.00,,---,0.00,VWS V14.01,2013-03-28 08:28:00,
2013-03-28 03:30:00,25.2,22.1,30.28,South,180,0.0,0.0,88,0.00,,---,0.00,VWS V14.01,2013-03-28 08:30:00,
2013-03-28 03:32:00,25.1,22.0,30.28,South,180,0.0,0.0,88,0.00,,---,0.00,VWS V14.01,2013-03-28 08:32:00,
2013-03-28 03:33:00,25.0,22.0,30.28,South,180,0.0,0.0,88,0.00,,---,0.00,VWS V14.01,2013-03-28 08:33:00,
2013-03-28 03:35:00,24.8,22.0,30.28,South,180,0.0,0.0,89,0.00,,---,0.00,VWS V14.01,2013-03-28 08:35:00,
2013-03-28 03:38:00,24.6,21.8,30.28,South,180,0.0,0.0,89,0.00,,---,0.00,VWS V14.01,2013-03-28 08:38:00,
2013-03-28 03:40:00,24.6,22.1,30.28,South,180,0.0,0.0,90,0.00,,---,0.00,VWS V14.01,2013-03-28 08:40:00,
2013-03-28 03:43:00,24.6,22.4,30.28,South,180,0.0,0.0,91,0.00,,---,0.00,VWS V14.01,2013-03-28 08:43:00,
2013-03-28 03:45:00,24.6,22.4,30.28,South,180,0.0,0.0,91,0.00,,---,0.00,VWS V14.01,2013-03-28 08:45:00,
2013-03-28 03:48:00,24.6,22.4,30.28,South,180,0.0,0.0,91,0.00,,---,0.00,VWS V14.01,2013-03-28 08:48:00,
2013-03-28 03:49:00,24.6,22.4,30.28,South,180,0.0,0.0,91,0.00,,---,0.00,VWS V14.01,2013-03-28 08:49:00,
2013-03-28 03:50:00,24.6,22.4,30.28,South,180,0.0,0.0,91,0.00,,---,0.00,VWS V14.01,2013-03-28 08:50:00,
2013-03-28 03:53:00,24.5,22.2,30.28,South,180,0.0,0.0,91,0.00,,---,0.00,VWS V14.01,2013-03-28 08:53:00,
2013-03-28 03:54:00,24.5,22.2,30.28,South,180,0.0,0.0,91,0.00,,---,0.00,VWS V14.01,2013-03-28 08:54:00,
2013-03-28 03:55:00,24.4,22.2,30.28,South,180,0.0,0.0,91,0.00,,---,0.00,VWS V14.01,2013-03-28 08:55:00,
2013-03-28 03:58:00,24.3,22.1,30.28,South,180,0.0,0.0,91,0.00,,---,0.00,VWS V14.01,2013-03-28 08:58:00,
2013-03-28 03:59:00,24.3,22.1,30.28,South,180,0.0,0.0,91,0.00,,---,0.00,VWS V14.01,2013-03-28 08:59:00,
2013-03-28 04:01:00,24.2,22.0,30.27,South,180,0.0,0.0,91,0.00,,---,0.00,VWS V14.01,2013-03-28 09:01:00,
2013-03-28 04:04:00,24.1,21.9,30.27,South,180,0.0,0.0,91,0.00,,---,0.00,VWS V14.01,2013-03-28 09:04:00,
2013-03-28 04:06:00,23.9,21.7,30.27,South,180,0.0,0.0,91,0.00,,---,0.00,VWS V14.01,2013-03-28 09:06:00,
2013-03-28 04:09:00,23.9,21.7,30.27,South,180,0.0,0.0,91,0.00,,---,0.00,VWS V14.01,2013-03-28 09:09:00,
2013-03-28 04:12:00,23.8,21.6,30.27,South,180,0.0,0.0,91,0.00,,---,0.00,VWS V14.01,2013-03-28 09:12:00,
2013-03-28 04:14:00,23.8,21.6,30.28,South,180,0.0,0.0,91,0.00,,---,0.00,VWS V14.01,2013-03-28 09:14:00,
2013-03-28 04:15:00,23.8,21.8,30.27,South,180,0.0,0.0,92,0.00,,---,0.00,VWS V14.01,2013-03-28 09:15:00,
2013-03-28 04:17:00,23.8,21.8,30.28,South,180,0.0,0.0,92,0.00,,---,0.00,VWS V14.01,2013-03-28 09:17:00,
2013-03-28 04:19:00,23.9,21.9,30.28,South,180,0.0,0.0,92,0.00,,---,0.00,VWS V14.01,2013-03-28 09:19:00,
2013-03-28 04:20:00,23.9,21.9,30.28,South,180,0.0,0.0,92,0.00,,---,0.00,VWS V14.01,2013-03-28 09:20:00,
2013-03-28 04:22:00,24.0,21.8,30.28,South,180,0.0,0.0,91,0.00,,---,0.00,VWS V14.01,2013-03-28 09:22:00,
2013-03-28 04:24:00,24.0,21.8,30.27,South,180,0.0,0.0,91,0.00,,---,0.00,VWS V14.01,2013-03-28 09:24:00,
2013-03-28 04:25:00,24.0,21.8,30.27,South,180,0.0,0.0,91,0.00,,---,0.00,VWS V14.01,2013-03-28 09:25:00,
2013-03-28 04:27:00,24.0,21.8,30.27,South,180,0.0,0.0,91,0.00,,---,0.00,VWS V14.01,2013-03-28 09:27:00,
2013-03-28 04:29:00,23.9,21.7,30.27,South,180,0.0,0.0,91,0.00,,---,0.00,VWS V14.01,2013-03-28 09:29:00,
2013-03-28 04:30:00,23.9,21.7,30.27,South,180,0.0,0.0,91,0.00,,---,0.00,VWS V14.01,2013-03-28 09:30:00,
2013-03-28 04:32:00,23.8,21.8,30.27,South,180,0.0,0.0,92,0.00,,---,0.00,VWS V14.01,2013-03-28 09:32:00,
2013-03-28 04:34:00,23.6,21.6,30.27,South,180,0.0,0.0,92,0.00,,---,0.00,VWS V14.01,2013-03-28 09:34:00,
2013-03-28 04:35:00,23.6,21.6,30.27,South,180,0.0,0.0,92,0.00,,---,0.00,VWS V14.01,2013-03-28 09:35:00,
2013-03-28 04:37:00,23.5,21.5,30.27,South,180,0.0,0.0,92,0.00,,---,0.00,VWS V14.01,2013-03-28 09:37:00,
2013-03-28 04:40:00,23.5,21.3,30.27,South,180,0.0,0.0,91,0.00,,---,0.00,VWS V14.01,2013-03-28 09:40:00,
2013-03-28 04:42:00,23.4,21.2,30.27,South,180,0.0,0.0,91,0.00,,---,0.00,VWS V14.01,2013-03-28 09:42:00,
2013-03-28 04:45:00,23.4,21.2,30.27,South,180,0.0,0.0,91,0.00,,---,0.00,VWS V14.01,2013-03-28 09:45:00,
2013-03-28 04:48:00,23.1,20.9,30.27,South,180,0.0,0.0,91,0.00,,---,0.00,VWS V14.01,2013-03-28 09:48:00,
2013-03-28 04:50:00,23.1,20.9,30.27,South,180,0.0,0.0,91,0.00,,---,0.00,VWS V14.01,2013-03-28 09:50:00,
2013-03-28 04:51:00,23.1,21.1,30.27,South,180,0.0,0.0,92,0.00,,---,0.00,VWS V14.01,2013-03-28 09:51:00,
2013-03-28 04:53:00,23.1,21.1,30.27,South,180,0.0,0.0,92,0.00,,---,0.00,VWS V14.01,2013-03-28 09:53:00,
2013-03-28 04:55:00,23.1,21.1,30.27,South,180,0.0,0.0,92,0.00,,---,0.00,VWS V14.01,2013-03-28 09:55:00,
2013-03-28 04:56:00,23.1,21.1,30.27,South,180,0.0,0.0,92,0.00,,---,0.00,VWS V14.01,2013-03-28 09:56:00,
2013-03-28 04:58:00,23.0,21.0,30.27,South,180,0.0,0.0,92,0.00,,---,0.00,VWS V14.01,2013-03-28 09:58:00,
2013-03-28 05:00:00,22.9,20.9,30.27,South,180,0.0,0.0,92,0.00,,---,0.00,VWS V14.01,2013-03-28 10:00:00,
2013-03-28 05:01:00,22.9,20.9,30.27,South,180,0.0,0.0,92,0.00,,---,0.00,VWS V14.01,2013-03-28 10:01:00,
2013-03-28 05:03:00,22.8,20.8,30.27,South,180,0.0,0.0,92,0.00,,---,0.00,VWS V14.01,2013-03-28 10:03:00,
2013-03-28 05:06:00,22.8,20.8,30.28,South,180,0.0,0.0,92,0.00,,---,0.00,VWS V14.01,2013-03-28 10:06:00,
2013-03-28 05:07:00,22.7,20.7,30.28,South,180,0.0,0.0,92,0.00,,---,0.00,VWS V14.01,2013-03-28 10:07:00,
2013-03-28 05:09:00,22.7,20.7,30.28,South,180,0.0,0.0,92,0.00,,---,0.00,VWS V14.01,2013-03-28 10:09:00,
2013-03-28 05:12:00,22.6,20.6,30.28,South,180,0.0,0.0,92,0.00,,---,0.00,VWS V14.01,2013-03-28 10:12:00,
2013-03-28 05:14:00,22.5,20.5,30.28,South,180,0.0,0.0,92,0.00,,---,0.00,VWS V14.01,2013-03-28 10:14:00,
2013-03-28 05:17:00,22.4,20.4,30.28,South,180,0.0,0.0,92,0.00,,---,0.00,VWS V14.01,2013-03-28 10:17:00,
2013-03-28 05:19:00,22.3,20.3,30.28,South,180,0.0,0.0,92,0.00,,---,0.00,VWS V14.01,2013-03-28 10:19:00,
2013-03-28 05:22:00,22.2,20.2,30.28,South,180,0.0,0.0,92,0.00,,---,0.00,VWS V14.01,2013-03-28 10:22:00,
2013-03-28 05:24:00,22.2,20.2,30.28,South,180,0.0,0.0,92,0.00,,---,0.00,VWS V14.01,2013-03-28 10:24:00,
2013-03-28 05:27:00,22.1,20.1,30.28,South,180,0.0,0.0,92,0.00,,---,0.00,VWS V14.01,2013-03-28 10:27:00,
2013-03-28 05:29:00,22.1,20.1,30.28,South,180,0.0,0.0,92,0.00,,---,0.00,VWS V14.01,2013-03-28 10:29:00,
2013-03-28 05:32:00,22.1,20.1,30.28,South,180,0.0,0.0,92,0.00,,---,0.00,VWS V14.01,2013-03-28 10:32:00,
2013-03-28 05:33:00,22.0,20.0,30.28,South,180,0.0,0.0,92,0.00,,---,0.00,VWS V14.01,2013-03-28 10:33:00,
2013-03-28 05:34:00,22.0,20.0,30.28,South,180,0.0,0.0,92,0.00,,---,0.00,VWS V14.01,2013-03-28 10:34:00,
2013-03-28 05:37:00,22.0,20.0,30.28,South,180,0.0,0.0,92,0.00,,---,0.00,VWS V14.01,2013-03-28 10:37:00,
2013-03-28 05:38:00,22.0,20.0,30.28,South,180,0.0,0.0,92,0.00,,---,0.00,VWS V14.01,2013-03-28 10:38:00,
2013-03-28 05:39:00,21.9,19.9,30.28,South,180,0.0,0.0,92,0.00,,---,0.00,VWS V14.01,2013-03-28 10:39:00,
2013-03-28 05:42:00,22.0,20.3,30.28,South,180,0.0,0.0,93,0.00,,---,0.00,VWS V14.01,2013-03-28 10:42:00,
2013-03-28 05:43:00,21.9,20.2,30.28,South,180,0.0,0.0,93,0.00,,---,0.00,VWS V14.01,2013-03-28 10:43:00,
2013-03-28 05:44:00,22.0,20.3,30.28,South,180,0.0,0.0,93,0.00,,---,0.00,VWS V14.01,2013-03-28 10:44:00,
2013-03-28 05:47:00,22.1,20.4,30.28,South,180,0.0,0.0,93,0.00,,---,0.00,VWS V14.01,2013-03-28 10:47:00,
2013-03-28 05:48:00,22.1,20.4,30.28,South,180,0.0,0.0,93,0.00,,---,0.00,VWS V14.01,2013-03-28 10:48:00,
2013-03-28 05:49:00,22.1,20.4,30.28,South,180,0.0,0.0,93,0.00,,---,0.00,VWS V14.01,2013-03-28 10:49:00,
2013-03-28 05:53:00,22.3,20.8,30.28,South,180,0.0,0.0,94,0.00,,---,0.00,VWS V14.01,2013-03-28 10:53:00,
2013-03-28 05:54:00,22.3,20.8,30.28,South,180,0.0,0.0,94,0.00,,---,0.00,VWS V14.01,2013-03-28 10:54:00,
2013-03-28 05:58:00,22.5,21.0,30.28,South,180,0.0,0.0,94,0.00,,---,0.00,VWS V14.01,2013-03-28 10:58:00,
2013-03-28 05:59:00,22.5,21.0,30.28,South,180,0.0,0.0,94,0.00,,---,0.00,VWS V14.01,2013-03-28 10:59:00,
2013-03-28 06:03:00,22.5,21.0,30.28,South,180,0.0,0.0,94,0.00,,---,0.00,VWS V14.01,2013-03-28 11:03:00,
2013-03-28 06:05:00,22.5,21.0,30.29,South,180,0.0,0.0,94,0.00,,---,0.00,VWS V14.01,2013-03-28 11:05:00,
2013-03-28 06:08:00,22.5,21.0,30.28,South,180,0.0,0.0,94,0.00,,---,0.00,VWS V14.01,2013-03-28 11:08:00,
2013-03-28 06:10:00,22.5,21.0,30.28,South,180,0.0,0.0,94,0.00,,---,0.00,VWS V14.01,2013-03-28 11:10:00,
2013-03-28 06:13:00,22.4,20.9,30.28,South,180,0.0,0.0,94,0.00,,---,0.00,VWS V14.01,2013-03-28 11:13:00,
2013-03-28 06:15:00,22.4,20.9,30.28,South,180,0.0,0.0,94,0.00,,---,0.00,VWS V14.01,2013-03-28 11:15:00,
2013-03-28 06:18:00,22.5,21.0,30.29,South,180,0.0,0.0,94,0.00,,---,0.00,VWS V14.01,2013-03-28 11:18:00,
2013-03-28 06:21:00,22.5,21.0,30.29,South,180,0.0,0.0,94,0.00,,---,0.00,VWS V14.01,2013-03-28 11:21:00,
2013-03-28 06:23:00,22.5,21.0,30.29,South,180,0.0,0.0,94,0.00,,---,0.00,VWS V14.01,2013-03-28 11:23:00,
2013-03-28 06:24:00,22.5,21.0,30.29,South,180,0.0,0.0,94,0.00,,---,0.00,VWS V14.01,2013-03-28 11:24:00,
2013-03-28 06:26:00,22.5,21.0,30.29,South,180,0.0,0.0,94,0.00,,---,0.00,VWS V14.01,2013-03-28 11:26:00,
2013-03-28 06:28:00,22.5,20.8,30.29,South,180,0.0,0.0,93,0.00,,---,0.00,VWS V14.01,2013-03-28 11:28:00,
2013-03-28 06:29:00,22.5,20.8,30.29,South,180,0.0,0.0,93,0.00,,---,0.00,VWS V14.01,2013-03-28 11:29:00,
2013-03-28 06:32:00,22.4,20.7,30.29,South,180,0.0,0.0,93,0.00,,---,0.00,VWS V14.01,2013-03-28 11:32:00,
2013-03-28 06:33:00,22.3,20.6,30.30,South,180,0.0,0.0,93,0.00,,---,0.00,VWS V14.01,2013-03-28 11:33:00,
2013-03-28 06:34:00,22.3,20.6,30.30,South,180,0.0,0.0,93,0.00,,---,0.00,VWS V14.01,2013-03-28 11:34:00,
2013-03-28 06:37:00,22.3,20.6,30.29,South,180,0.0,0.0,93,0.00,,---,0.00,VWS V14.01,2013-03-28 11:37:00,
2013-03-28 06:38:00,22.3,20.6,30.30,South,180,0.0,0.0,93,0.00,,---,0.00,VWS V14.01,2013-03-28 11:38:00,
2013-03-28 06:39:00,22.3,20.6,30.29,South,180,0.0,0.0,93,0.00,,---,0.00,VWS V14.01,2013-03-28 11:39:00,
2013-03-28 06:43:00,22.4,20.9,30.30,South,180,0.0,0.0,94,0.00,,---,0.00,VWS V14.01,2013-03-28 11:43:00,
2013-03-28 06:44:00,22.4,20.9,30.30,South,180,0.0,0.0,94,0.00,,---,0.00,VWS V14.01,2013-03-28 11:44:00,
2013-03-28 06:48:00,22.4,20.9,30.30,South,180,0.0,0.0,94,0.00,,---,0.00,VWS V14.01,2013-03-28 11:48:00,
2013-03-28 06:49:00,22.4,20.9,30.30,South,180,0.0,0.0,94,0.00,,---,0.00,VWS V14.01,2013-03-28 11:49:00,
2013-03-28 06:50:00,22.2,20.7,30.30,South,180,0.0,0.0,94,0.00,,---,0.00,VWS V14.01,2013-03-28 11:50:00,
2013-03-28 06:53:00,22.1,20.6,30.30,South,180,0.0,0.0,94,0.00,,---,0.00,VWS V14.01,2013-03-28 11:53:00,
2013-03-28 06:54:00,22.1,20.6,30.30,South,180,0.0,0.0,94,0.00,,---,0.00,VWS V14.01,2013-03-28 11:54:00,
2013-03-28 06:55:00,22.2,20.7,30.30,South,180,0.0,0.0,94,0.00,,---,0.00,VWS V14.01,2013-03-28 11:55:00,
2013-03-28 06:58:00,22.3,20.8,30.30,South,180,0.0,0.0,94,0.00,,---,0.00,VWS V14.01,2013-03-28 11:58:00,
2013-03-28 06:59:00,22.3,20.8,30.30,South,180,0.0,0.0,94,0.00,,---,0.00,VWS V14.01,2013-03-28 11:59:00,
2013-03-28 07:00:00,22.4,20.9,30.30,South,180,0.0,0.0,94,0.00,,---,0.00,VWS V14.01,2013-03-28 12:00:00,
2013-03-28 07:03:00,22.4,20.9,30.30,South,180,0.0,0.0,94,0.00,,---,0.00,VWS V14.01,2013-03-28 12:03:00,
2013-03-28 07:04:00,22.5,21.0,30.30,South,180,0.0,0.0,94,0.00,,---,0.00,VWS V14.01,2013-03-28 12:04:00,
2013-03-28 07:05:00,22.5,21.0,30.30,South,180,0.0,0.0,94,0.00,,---,0.00,VWS V14.01,2013-03-28 12:05:00,
2013-03-28 07:08:00,22.6,21.1,30.30,South,180,0.0,0.0,94,0.00,,---,0.00,VWS V14.01,2013-03-28 12:08:00,
2013-03-28 07:09:00,22.5,21.0,30.30,South,180,0.0,0.0,94,0.00,,---,0.00,VWS V14.01,2013-03-28 12:09:00,
2013-03-28 07:10:00,22.6,21.1,30.30,South,180,0.0,0.0,94,0.00,,---,0.00,VWS V14.01,2013-03-28 12:10:00,
2013-03-28 07:13:00,22.6,21.1,30.30,South,180,0.0,0.0,94,0.00,,---,0.00,VWS V14.01,2013-03-28 12:13:00,
2013-03-28 07:14:00,22.7,21.2,30.30,South,180,0.0,0.0,94,0.00,,---,0.00,VWS V14.01,2013-03-28 12:14:00,
2013-03-28 07:16:00,22.7,21.2,30.30,South,180,0.0,0.0,94,0.00,,---,0.00,VWS V14.01,2013-03-28 12:16:00,
2013-03-28 07:18:00,22.8,21.3,30.30,South,180,0.0,0.0,94,0.00,,---,0.00,VWS V14.01,2013-03-28 12:18:00,
2013-03-28 07:19:00,22.8,21.3,30.30,South,180,0.0,0.0,94,0.00,,---,0.00,VWS V14.01,2013-03-28 12:19:00,
2013-03-28 07:21:00,22.9,21.4,30.31,South,180,0.0,0.0,94,0.00,,---,0.00,VWS V14.01,2013-03-28 12:21:00,
2013-03-28 07:23:00,23.0,21.5,30.30,South,180,0.0,0.0,94,0.00,,---,0.00,VWS V14.01,2013-03-28 12:23:00,
2013-03-28 07:24:00,23.0,21.5,30.31,South,180,0.0,0.0,94,0.00,,---,0.00,VWS V14.01,2013-03-28 12:24:00,
2013-03-28 07:26:00,23.1,21.6,30.30,South,180,0.0,0.0,94,0.00,,---,0.00,VWS V14.01,2013-03-28 12:26:00,
2013-03-28 07:28:00,23.1,21.6,30.30,South,180,0.0,0.0,94,0.00,,---,0.00,VWS V14.01,2013-03-28 12:28:00,
2013-03-28 07:29:00,23.2,21.7,30.30,South,180,0.0,0.0,94,0.00,,---,0.00,VWS V14.01,2013-03-28 12:29:00,
2013-03-28 07:32:00,23.2,21.7,30.31,South,180,0.0,0.0,94,0.00,,---,0.00,VWS V14.01,2013-03-28 12:32:00,
2013-03-28 07:33:00,23.2,21.7,30.31,South,180,0.0,0.0,94,0.00,,---,0.00,VWS V14.01,2013-03-28 12:33:00,
2013-03-28 07:34:00,23.1,21.6,30.31,South,180,0.0,0.0,94,0.00,,---,0.00,VWS V14.01,2013-03-28 12:34:00,
2013-03-28 07:35:00,23.1,21.6,30.31,South,180,0.0,0.0,94,0.00,,---,0.00,VWS V14.01,2013-03-28 12:35:00,
2013-03-28 07:37:00,23.1,21.6,30.31,South,180,0.0,0.0,94,0.00,,---,0.00,VWS V14.01,2013-03-28 12:37:00,
2013-03-28 07:39:00,23.1,21.6,30.31,South,180,0.0,0.0,94,0.00,,---,0.00,VWS V14.01,2013-03-28 12:39:00,
2013-03-28 07:40:00,23.1,21.6,30.31,South,180,0.0,0.0,94,0.00,,---,0.00,VWS V14.01,2013-03-28 12:40:00,
2013-03-28 07:42:00,23.2,21.7,30.31,South,180,0.0,0.0,94,0.00,,---,0.00,VWS V14.01,2013-03-28 12:42:00,
2013-03-28 07:44:00,23.3,21.8,30.31,South,180,0.0,0.0,94,0.00,,---,0.00,VWS V14.01,2013-03-28 12:44:00,
2013-03-28 07:45:00,23.4,21.9,30.31,South,180,0.0,0.0,94,0.00,,---,0.00,VWS V14.01,2013-03-28 12:45:00,
2013-03-28 07:47:00,23.5,22.0,30.31,South,180,0.0,0.0,94,0.00,,---,0.00,VWS V14.01,2013-03-28 12:47:00,
2013-03-28 07:49:00,23.5,22.0,30.31,South,180,0.0,0.0,94,0.00,,---,0.00,VWS V14.01,2013-03-28 12:49:00,
2013-03-28 07:50:00,23.6,22.1,30.31,South,180,0.0,0.0,94,0.00,,---,0.00,VWS V14.01,2013-03-28 12:50:00,
2013-03-28 07:52:00,23.9,22.4,30.31,South,180,0.0,0.0,94,0.00,,---,0.00,VWS V14.01,2013-03-28 12:52:00,
2013-03-28 07:54:00,24.1,22.6,30.31,South,180,0.0,0.0,94,0.00,,---,0.00,VWS V14.01,2013-03-28 12:54:00,
2013-03-28 07:55:00,24.3,22.8,30.31,South,180,0.0,0.0,94,0.00,,---,0.00,VWS V14.01,2013-03-28 12:55:00,
2013-03-28 07:57:00,24.5,23.0,30.31,South,180,0.0,0.0,94,0.00,,---,0.00,VWS V14.01,2013-03-28 12:57:00,
2013-03-28 07:59:00,24.6,23.1,30.32,South,180,0.0,0.0,94,0.00,,---,0.00,VWS V14.01,2013-03-28 12:59:00,
2013-03-28 08:00:00,24.6,23.1,30.32,South,180,1.0,1.0,94,0.00,,---,0.00,VWS V14.01,2013-03-28 13:00:00,
2013-03-28 08:02:00,24.4,22.9,30.32,South,180,1.0,2.0,94,0.00,,---,0.00,VWS V14.01,2013-03-28 13:02:00,
2013-03-28 08:04:00,24.4,22.7,30.32,South,180,0.0,2.0,93,0.00,,---,0.00,VWS V14.01,2013-03-28 13:04:00,
2013-03-28 08:05:00,24.3,22.6,30.32,South,180,0.0,2.0,93,0.00,,---,0.00,VWS V14.01,2013-03-28 13:05:00,
2013-03-28 08:08:00,24.6,22.9,30.31,South,180,0.0,2.0,93,0.00,,---,0.00,VWS V14.01,2013-03-28 13:08:00,
2013-03-28 08:09:00,24.7,23.0,30.32,South,180,0.0,2.0,93,0.00,,---,0.00,VWS V14.01,2013-03-28 13:09:00,
2013-03-28 08:10:00,24.9,23.4,30.32,South,180,0.0,2.0,94,0.00,,---,0.00,VWS V14.01,2013-03-28 13:10:00,
2013-03-28 08:13:00,25.5,24.0,30.32,South,180,0.0,2.0,94,0.00,,---,0.00,VWS V14.01,2013-03-28 13:13:00,
2013-03-28 08:14:00,25.6,24.1,30.31,South,180,0.0,2.0,94,0.00,,---,0.00,VWS V14.01,2013-03-28 13:14:00,
2013-03-28 08:15:00,25.8,24.3,30.31,South,180,0.0,2.0,94,0.00,,---,0.00,VWS V14.01,2013-03-28 13:15:00,
2013-03-28 08:16:00,26.1,24.6,30.31,South,180,0.0,2.0,94,0.00,,---,0.00,VWS V14.01,2013-03-28 13:16:00,
2013-03-28 08:18:00,26.6,25.4,30.31,South,180,0.0,2.0,95,0.00,,---,0.00,VWS V14.01,2013-03-28 13:18:00,
2013-03-28 08:19:00,26.7,25.5,30.31,South,180,0.0,2.0,95,0.00,,---,0.00,VWS V14.01,2013-03-28 13:19:00,
2013-03-28 08:20:00,27.0,25.8,30.31,South,180,0.0,2.0,95,0.00,,---,0.00,VWS V14.01,2013-03-28 13:20:00,
2013-03-28 08:21:00,27.3,25.8,30.32,South,180,0.0,2.0,94,0.00,,---,0.00,VWS V14.01,2013-03-28 13:21:00,
2013-03-28 08:24:00,27.7,26.2,30.31,South,180,0.0,2.0,94,0.00,,---,0.00,VWS V14.01,2013-03-28 13:24:00,
2013-03-28 08:25:00,27.9,26.4,30.31,South,180,0.0,2.0,94,0.00,,---,0.00,VWS V14.01,2013-03-28 13:25:00,
2013-03-28 08:27:00,28.2,26.4,30.31,South,180,0.0,2.0,93,0.00,,---,0.00,VWS V14.01,2013-03-28 13:27:00,
2013-03-28 08:29:00,28.6,26.8,30.31,South,180,0.0,2.0,93,0.00,,---,0.00,VWS V14.01,2013-03-28 13:29:00,
2013-03-28 08:30:00,28.7,26.7,30.31,South,180,0.0,2.0,92,0.00,,---,0.00,VWS V14.01,2013-03-28 13:30:00,
2013-03-28 08:32:00,29.0,26.4,30.31,South,180,0.0,0.0,90,0.00,,---,0.00,VWS V14.01,2013-03-28 13:32:00,
2013-03-28 08:34:00,29.4,26.3,30.31,South,180,0.0,0.0,88,0.00,,---,0.00,VWS V14.01,2013-03-28 13:34:00,
2013-03-28 08:35:00,29.6,26.5,30.32,South,180,0.0,0.0,88,0.00,,---,0.00,VWS V14.01,2013-03-28 13:35:00,
2013-03-28 08:36:00,29.6,26.5,30.32,South,180,0.0,0.0,88,0.00,,---,0.00,VWS V14.01,2013-03-28 13:36:00,
2013-03-28 08:37:00,29.7,26.3,30.31,South,180,0.0,0.0,87,0.00,,---,0.00,VWS V14.01,2013-03-28 13:37:00,
2013-03-28 08:39:00,29.7,26.3,30.32,South,180,0.0,1.0,87,0.00,,---,0.00,VWS V14.01,2013-03-28 13:39:00,
2013-03-28 08:40:00,29.7,26.0,30.32,South,180,1.0,2.0,86,0.00,,---,0.00,VWS V14.01,2013-03-28 13:40:00,
2013-03-28 08:42:00,29.7,26.0,30.32,South,180,2.0,2.0,86,0.00,,---,0.00,VWS V14.01,2013-03-28 13:42:00,
2013-03-28 08:44:00,29.8,25.6,30.32,South,180,1.0,2.0,84,0.00,,---,0.00,VWS V14.01,2013-03-28 13:44:00,
2013-03-28 08:46:00,29.9,25.4,30.32,South,180,0.0,2.0,83,0.00,,---,0.00,VWS V14.01,2013-03-28 13:46:00,
2013-03-28 08:47:00,30.0,25.5,30.31,South,180,0.0,2.0,83,0.00,,---,0.00,VWS V14.01,2013-03-28 13:47:00,
2013-03-28 08:49:00,30.5,26.0,30.31,South,180,0.0,2.0,83,0.00,,---,0.00,VWS V14.01,2013-03-28 13:49:00,
2013-03-28 08:51:00,30.8,26.3,30.31,South,180,0.0,2.0,83,0.00,,---,0.00,VWS V14.01,2013-03-28 13:51:00,
2013-03-28 08:52:00,30.9,26.1,30.31,South,180,0.0,2.0,82,0.00,,---,0.00,VWS V14.01,2013-03-28 13:52:00,
2013-03-28 08:54:00,31.4,25.6,30.31,South,180,0.0,2.0,79,0.00,,---,0.00,VWS V14.01,2013-03-28 13:54:00,
2013-03-28 08:56:00,31.9,25.5,30.31,South,171,2.0,2.0,77,0.00,,---,0.00,VWS V14.01,2013-03-28 13:56:00,
2013-03-28 08:57:00,32.0,25.6,30.31,South,171,0.0,2.0,77,0.00,,---,0.00,VWS V14.01,2013-03-28 13:57:00,
2013-03-28 08:59:00,32.6,25.9,30.31,SSE,165,2.0,2.0,76,0.00,,---,0.00,VWS V14.01,2013-03-28 13:59:00,
2013-03-28 09:02:00,33.2,25.8,30.31,East,80,0.0,1.0,74,0.00,,---,0.00,VWS V14.01,2013-03-28 14:02:00,
2013-03-28 09:04:00,33.9,26.2,30.31,East,93,1.0,2.0,73,0.00,,---,0.00,VWS V14.01,2013-03-28 14:04:00,
2013-03-28 09:07:00,34.5,26.4,30.31,East,98,0.0,2.0,72,0.00,,---,0.00,VWS V14.01,2013-03-28 14:07:00,
2013-03-28 09:09:00,34.9,26.1,30.31,East,98,0.0,2.0,70,0.00,,---,0.00,VWS V14.01,2013-03-28 14:09:00,
2013-03-28 09:12:00,35.3,25.5,30.31,East,80,0.0,2.0,67,0.00,,---,0.00,VWS V14.01,2013-03-28 14:12:00,
2013-03-28 09:14:00,35.7,25.5,30.31,ENE,71,0.0,2.0,66,0.00,,---,0.00,VWS V14.01,2013-03-28 14:14:00,
2013-03-28 09:17:00,36.2,25.6,30.31,ESE,108,0.0,2.0,65,0.00,,---,0.00,VWS V14.01,2013-03-28 14:17:00,
2013-03-28 09:18:00,36.4,25.4,30.31,ESE,102,0.0,2.0,64,0.00,,---,0.00,VWS V14.01,2013-03-28 14:18:00,
2013-03-28 09:20:00,36.8,25.0,30.31,ESE,109,0.0,2.0,62,0.00,,---,0.00,VWS V14.01,2013-03-28 14:20:00,
2013-03-28 09:22:00,37.1,24.9,30.31,SE,130,0.0,3.0,61,0.00,,---,0.00,VWS V14.01,2013-03-28 14:22:00,
2013-03-28 09:23:00,37.2,24.6,30.31,ESE,115,2.0,3.0,60,0.00,,---,0.00,VWS V14.01,2013-03-28 14:23:00,
2013-03-28 09:25:00,37.6,24.6,30.31,ENE,75,1.0,3.0,59,0.00,,---,0.00,VWS V14.01,2013-03-28 14:25:00,
2013-03-28 09:27:00,37.8,24.8,30.31,ENE,76,0.0,3.0,59,0.00,,---,0.00,VWS V14.01,2013-03-28 14:27:00,
2013-03-28 09:28:00,38.0,25.0,30.31,East,91,0.0,3.0,59,0.00,,---,0.00,VWS V14.01,2013-03-28 14:28:00,
2013-03-28 09:30:00,38.4,24.9,30.31,ESE,103,0.0,3.0,58,0.00,,---,0.00,VWS V14.01,2013-03-28 14:30:00,
2013-03-28 09:32:00,38.7,25.2,30.31,ESE,110,0.0,5.0,58,0.00,,---,0.00,VWS V14.01,2013-03-28 14:32:00,
2013-03-28 09:33:00,38.7,25.6,30.31,SE,128,1.0,5.0,59,0.00,,---,0.00,VWS V14.01,2013-03-28 14:33:00,
2013-03-28 09:35:00,39.0,25.9,30.31,SE,135,1.0,5.0,59,0.00,,---,0.00,VWS V14.01,2013-03-28 14:35:00,
2013-03-28 09:38:00,39.3,26.2,30.31,SE,131,2.0,5.0,59,0.00,,---,0.00,VWS V14.01,2013-03-28 14:38:00,
2013-03-28 09:40:00,39.6,26.1,30.30,SE,130,2.0,5.0,58,0.00,,---,0.00,VWS V14.01,2013-03-28 14:40:00,
2013-03-28 09:43:00,39.8,26.2,30.31,SE,141,4.0,5.0,58,0.00,,---,0.00,VWS V14.01,2013-03-28 14:43:00,
2013-03-28 09:45:00,39.9,25.5,30.31,SE,130,3.0,5.0,56,0.00,,---,0.00,VWS V14.01,2013-03-28 14:45:00,
2013-03-28 09:48:00,39.9,25.5,30.31,SE,132,1.0,5.0,56,0.00,,---,0.00,VWS V14.01,2013-03-28 14:48:00,
2013-03-28 09:50:00,40.1,25.7,30.31,SE,139,2.0,5.0,56,0.00,,---,0.00,VWS V14.01,2013-03-28 14:50:00,
2013-03-28 09:53:00,40.3,25.0,30.31,SE,143,3.0,5.0,54,0.00,,---,0.00,VWS V14.01,2013-03-28 14:53:00,
2013-03-28 09:55:00,40.6,25.7,30.31,SE,145,0.0,5.0,55,0.00,,---,0.00,VWS V14.01,2013-03-28 14:55:00,
2013-03-28 09:58:00,40.9,25.5,30.31,SSE,157,1.0,5.0,54,0.00,,---,0.00,VWS V14.01,2013-03-28 14:58:00,
2013-03-28 10:01:00,40.9,26.4,30.31,SSE,157,1.0,1.0,56,0.00,,---,0.00,VWS V14.01,2013-03-28 15:01:00,
2013-03-28 10:03:00,40.8,27.2,30.31,SSE,167,2.0,3.0,58,0.00,,---,0.00,VWS V14.01,2013-03-28 15:03:00,
2013-03-28 10:06:00,40.5,26.9,30.32,South,175,3.0,4.0,58,0.00,,---,0.00,VWS V14.01,2013-03-28 15:06:00,
2013-03-28 10:08:00,40.4,26.8,30.32,South,173,3.0,4.0,58,0.00,,---,0.00,VWS V14.01,2013-03-28 15:08:00,
2013-03-28 10:11:00,40.2,26.6,30.32,SSE,167,2.0,5.0,58,0.00,,---,0.00,VWS V14.01,2013-03-28 15:11:00,
2013-03-28 10:13:00,40.3,26.3,30.32,South,169,2.0,5.0,57,0.00,,---,0.00,VWS V14.01,2013-03-28 15:13:00,
2013-03-28 10:14:00,40.2,26.6,30.32,SSE,157,5.0,5.0,58,0.00,,---,0.00,VWS V14.01,2013-03-28 15:14:00,
2013-03-28 10:16:00,40.2,26.2,30.31,SSE,164,5.0,7.0,57,0.00,,---,0.00,VWS V14.01,2013-03-28 15:16:00,
2013-03-28 10:18:00,40.1,26.1,30.31,SSE,150,5.0,7.0,57,0.00,,---,0.00,VWS V14.01,2013-03-28 15:18:00,
2013-03-28 10:19:00,40.0,25.6,30.32,SE,137,1.0,7.0,56,0.00,,---,0.00,VWS V14.01,2013-03-28 15:19:00,
2013-03-28 10:22:00,40.4,25.5,30.32,SSE,167,2.0,7.0,55,0.00,,---,0.00,VWS V14.01,2013-03-28 15:22:00,
2013-03-28 10:23:00,40.6,25.7,30.32,SE,129,0.0,7.0,55,0.00,,---,0.00,VWS V14.01,2013-03-28 15:23:00,
2013-03-28 10:24:00,40.7,25.4,30.32,South,171,3.0,7.0,54,0.00,,---,0.00,VWS V14.01,2013-03-28 15:24:00,
2013-03-28 10:27:00,40.8,25.9,30.32,South,175,2.0,7.0,55,0.00,,---,0.00,VWS V14.01,2013-03-28 15:27:00,
2013-03-28 10:28:00,40.8,25.9,30.32,SSE,158,2.0,7.0,55,0.00,,---,0.00,VWS V14.01,2013-03-28 15:28:00,
2013-03-28 10:29:00,40.9,25.5,30.32,SE,130,4.0,9.0,54,0.00,,---,0.00,VWS V14.01,2013-03-28 15:29:00,
2013-03-28 10:32:00,41.1,26.2,30.32,SSE,162,2.0,2.0,55,0.00,,---,0.00,VWS V14.01,2013-03-28 15:32:00,
2013-03-28 10:33:00,41.2,25.4,30.32,SSE,165,1.0,3.0,53,0.00,,---,0.00,VWS V14.01,2013-03-28 15:33:00,
2013-03-28 10:34:00,41.3,25.9,30.31,SSE,165,4.0,6.0,54,0.00,,---,0.00,VWS V14.01,2013-03-28 15:34:00,
2013-03-28 10:37:00,41.5,26.1,30.31,SE,135,3.0,6.0,54,0.00,,---,0.00,VWS V14.01,2013-03-28 15:37:00,
2013-03-28 10:38:00,41.6,25.8,30.31,SE,131,2.0,6.0,53,0.00,,---,0.00,VWS V14.01,2013-03-28 15:38:00,
2013-03-28 10:39:00,41.7,25.9,30.31,SE,130,4.0,6.0,53,0.00,,---,0.00,VWS V14.01,2013-03-28 15:39:00,
2013-03-28 10:40:00,41.8,25.9,30.32,SSE,153,4.0,6.0,53,0.00,,---,0.00,VWS V14.01,2013-03-28 15:40:00,
2013-03-28 10:42:00,41.9,25.6,30.32,SSE,163,2.0,6.0,52,0.00,,---,0.00,VWS V14.01,2013-03-28 15:42:00,
2013-03-28 10:43:00,42.0,25.7,30.31,SSE,165,2.0,6.0,52,0.00,,---,0.00,VWS V14.01,2013-03-28 15:43:00,
2013-03-28 10:44:00,42.0,26.6,30.31,SSE,162,3.0,6.0,54,0.00,,---,0.00,VWS V14.01,2013-03-28 15:44:00,
2013-03-28 10:45:00,41.9,26.5,30.31,SSE,162,2.0,6.0,54,0.00,,---,0.00,VWS V14.01,2013-03-28 15:45:00,
2013-03-28 10:47:00,41.9,25.6,30.32,South,170,3.0,6.0,52,0.00,,---,0.00,VWS V14.01,2013-03-28 15:47:00,
2013-03-28 10:49:00,41.9,26.9,30.31,SE,132,2.0,6.0,55,0.00,,---,0.00,VWS V14.01,2013-03-28 15:49:00,
2013-03-28 10:50:00,42.0,26.1,30.32,South,175,1.0,6.0,53,0.00,,---,0.00,VWS V14.01,2013-03-28 15:50:00,
2013-03-28 10:52:00,42.1,26.2,30.31,SSE,155,5.0,6.0,53,0.00,,---,0.00,VWS V14.01,2013-03-28 15:52:00,
2013-03-28 10:54:00,42.1,26.2,30.31,South,171,4.0,6.0,53,0.00,,---,0.00,VWS V14.01,2013-03-28 15:54:00,
2013-03-28 10:55:00,42.0,26.1,30.31,South,177,1.0,6.0,53,0.00,,---,0.00,VWS V14.01,2013-03-28 15:55:00,
2013-03-28 10:57:00,42.1,26.2,30.31,SE,144,1.0,6.0,53,0.00,,---,0.00,VWS V14.01,2013-03-28 15:57:00,
2013-03-28 10:59:00,42.4,26.5,30.31,SSE,157,5.0,6.0,53,0.00,,---,0.00,VWS V14.01,2013-03-28 15:59:00,
2013-03-28 11:00:00,42.5,26.1,30.31,SE,127,2.0,6.0,52,0.00,,---,0.00,VWS V14.01,2013-03-28 16:00:00,
2013-03-28 11:02:00,42.7,26.3,30.31,SSE,151,3.0,4.0,52,0.00,,---,0.00,VWS V14.01,2013-03-28 16:02:00,
2013-03-28 11:04:00,42.9,26.0,30.31,SE,136,2.0,5.0,51,0.00,,---,0.00,VWS V14.01,2013-03-28 16:04:00,
2013-03-28 11:05:00,43.0,26.1,30.31,SE,136,3.0,5.0,51,0.00,,---,0.00,VWS V14.01,2013-03-28 16:05:00,
2013-03-28 11:06:00,43.1,26.2,30.31,ESE,111,1.0,5.0,51,0.00,,---,0.00,VWS V14.01,2013-03-28 16:06:00,
2013-03-28 11:07:00,43.3,26.4,30.31,SSE,158,2.0,5.0,51,0.00,,---,0.00,VWS V14.01,2013-03-28 16:07:00,
2013-03-28 11:09:00,43.4,26.0,30.31,SE,142,4.0,5.0,50,0.00,,---,0.00,VWS V14.01,2013-03-28 16:09:00,
2013-03-28 11:10:00,43.4,26.0,30.31,SSE,162,2.0,5.0,50,0.00,,---,0.00,VWS V14.01,2013-03-28 16:10:00,
2013-03-28 11:11:00,43.4,26.0,30.31,SSE,163,3.0,5.0,50,0.00,,---,0.00,VWS V14.01,2013-03-28 16:11:00,
2013-03-28 11:12:00,43.4,26.0,30.31,SE,136,2.0,5.0,50,0.00,,---,0.00,VWS V14.01,2013-03-28 16:12:00,
2013-03-28 11:14:00,43.3,25.9,30.31,SE,139,3.0,7.0,50,0.00,,---,0.00,VWS V14.01,2013-03-28 16:14:00,
2013-03-28 11:15:00,43.3,25.9,30.31,SSE,161,4.0,7.0,50,0.00,,---,0.00,VWS V14.01,2013-03-28 16:15:00,
2013-03-28 11:17:00,43.3,25.4,30.31,SSE,150,3.0,7.0,49,0.00,,---,0.00,VWS V14.01,2013-03-28 16:17:00,
2013-03-28 11:19:00,43.2,26.8,30.31,SE,137,2.0,7.0,52,0.00,,---,0.00,VWS V14.01,2013-03-28 16:19:00,
2013-03-28 11:20:00,43.1,25.7,30.31,SE,138,2.0,7.0,50,0.00,,---,0.00,VWS V14.01,2013-03-28 16:20:00,
2013-03-28 11:22:00,43.1,26.2,30.31,SE,139,0.0,7.0,51,0.00,,---,0.00,VWS V14.01,2013-03-28 16:22:00,
2013-03-28 11:23:00,43.2,26.3,30.31,SE,139,5.0,7.0,51,0.00,,---,0.00,VWS V14.01,2013-03-28 16:23:00,
2013-03-28 11:25:00,43.3,26.4,30.31,South,178,2.0,7.0,51,0.00,,---,0.00,VWS V14.01,2013-03-28 16:25:00,
2013-03-28 11:27:00,43.2,25.8,30.31,SE,132,2.0,9.0,50,0.00,,---,0.00,VWS V14.01,2013-03-28 16:27:00,
2013-03-28 11:28:00,43.2,25.4,30.31,SE,144,3.0,9.0,49,0.00,,---,0.00,VWS V14.01,2013-03-28 16:28:00,
2013-03-28 11:30:00,43.3,25.4,30.31,SE,137,2.0,9.0,49,0.00,,---,0.00,VWS V14.01,2013-03-28 16:30:00,
2013-03-28 11:32:00,43.4,25.5,30.31,ENE,76,1.0,2.0,49,0.00,,---,0.00,VWS V14.01,2013-03-28 16:32:00,
2013-03-28 11:33:00,43.6,26.2,30.31,SE,140,1.0,4.0,50,0.00,,---,0.00,VWS V14.01,2013-03-28 16:33:00,
2013-03-28 11:35:00,43.7,25.8,30.31,SE,130,3.0,7.0,49,0.00,,---,0.00,VWS V14.01,2013-03-28 16:35:00,
2013-03-28 11:38:00,43.3,25.9,30.31,South,172,4.0,9.0,50,0.00,,---,0.00,VWS V14.01,2013-03-28 16:38:00,
2013-03-28 11:40:00,43.1,26.2,30.31,SE,141,1.0,9.0,51,0.00,,---,0.00,VWS V14.01,2013-03-28 16:40:00,
2013-03-28 11:43:00,43.2,26.3,30.30,SE,140,3.0,9.0,51,0.00,,---,0.00,VWS V14.01,2013-03-28 16:43:00,
2013-03-28 11:45:00,43.2,26.3,30.31,SSE,167,4.0,9.0,51,0.00,,---,0.00,VWS V14.01,2013-03-28 16:45:00,
2013-03-28 11:48:00,43.3,26.9,30.31,SSE,153,10.0,10.0,52,0.00,,---,0.00,VWS V14.01,2013-03-28 16:48:00,
2013-03-28 11:49:00,43.2,26.8,30.31,SSE,163,6.0,10.0,52,0.00,,---,0.00,VWS V14.01,2013-03-28 16:49:00,
2013-03-28 11:50:00,43.0,26.6,30.31,SE,124,2.0,12.0,52,0.00,,---,0.00,VWS V14.01,2013-03-28 16:50:00,
2013-03-28 11:53:00,43.1,26.7,30.31,SE,140,4.0,12.0,52,0.00,,---,0.00,VWS V14.01,2013-03-28 16:53:00,
2013-03-28 11:54:00,43.3,26.9,30.31,SE,142,2.0,12.0,52,0.00,,---,0.00,VWS V14.01,2013-03-28 16:54:00,
2013-03-28 11:55:00,43.5,27.1,30.31,ENE,67,0.0,12.0,52,0.00,,---,0.00,VWS V14.01,2013-03-28 16:55:00,
2013-03-28 11:58:00,44.2,27.2,30.31,East,84,0.0,12.0,51,0.00,,---,0.00,VWS V14.01,2013-03-28 16:58:00,
2013-03-28 11:59:00,44.4,27.4,30.31,East,92,1.0,12.0,51,0.00,,---,0.00,VWS V14.01,2013-03-28 16:59:00,
2013-03-28 12:00:00,44.6,28.1,30.31,SSE,150,0.0,12.0,52,0.00,,---,0.00,VWS V14.01,2013-03-28 17:00:00,
2013-03-28 12:03:00,45.1,27.6,30.31,SE,134,2.0,5.0,50,0.00,,---,0.00,VWS V14.01,2013-03-28 17:03:00,
2013-03-28 12:04:00,45.1,27.6,30.31,SE,133,2.0,5.0,50,0.00,,---,0.00,VWS V14.01,2013-03-28 17:04:00,
2013-03-28 12:05:00,45.1,27.1,30.31,SE,144,3.0,5.0,49,0.00,,---,0.00,VWS V14.01,2013-03-28 17:05:00,
2013-03-28 12:08:00,45.1,27.6,30.31,East,95,1.0,8.0,50,0.00,,---,0.00,VWS V14.01,2013-03-28 17:08:00,
2013-03-28 12:09:00,45.2,27.2,30.31,SE,128,2.0,8.0,49,0.00,,---,0.00,VWS V14.01,2013-03-28 17:09:00,
2013-03-28 12:10:00,45.3,27.3,30.31,SE,145,1.0,8.0,49,0.00,,---,0.00,VWS V14.01,2013-03-28 17:10:00,
2013-03-28 12:13:00,45.7,27.6,30.31,ESE,111,4.0,8.0,49,0.00,,---,0.00,VWS V14.01,2013-03-28 17:13:00,
2013-03-28 12:14:00,45.7,27.1,30.30,South,179,5.0,8.0,48,0.00,,---,0.00,VWS V14.01,2013-03-28 17:14:00,
2013-03-28 12:15:00,45.5,27.0,30.30,SE,130,6.0,8.0,48,0.00,,---,0.00,VWS V14.01,2013-03-28 17:15:00,
2013-03-28 12:18:00,45.1,27.6,30.31,SE,140,3.0,8.0,50,0.00,,---,0.00,VWS V14.01,2013-03-28 17:18:00,
2013-03-28 12:19:00,45.0,27.5,30.31,SE,140,4.0,8.0,50,0.00,,---,0.00,VWS V14.01,2013-03-28 17:19:00,
2013-03-28 12:20:00,44.9,27.4,30.31,ENE,67,3.0,8.0,50,0.00,,---,0.00,VWS V14.01,2013-03-28 17:20:00,
2013-03-28 12:23:00,45.1,27.6,30.31,ESE,119,0.0,8.0,50,0.00,,---,0.00,VWS V14.01,2013-03-28 17:23:00,
2013-03-28 12:24:00,45.2,27.7,30.30,SE,136,4.0,8.0,50,0.00,,---,0.00,VWS V14.01,2013-03-28 17:24:00,
2013-03-28 12:25:00,45.3,27.8,30.30,ENE,71,2.0,8.0,50,0.00,,---,0.00,VWS V14.01,2013-03-28 17:25:00,
2013-03-28 12:26:00,45.3,27.8,30.30,ENE,71,1.0,8.0,50,0.00,,---,0.00,VWS V14.01,2013-03-28 17:26:00,
2013-03-28 12:28:00,45.5,27.5,30.30,SE,144,2.0,8.0,49,0.00,,---,0.00,VWS V14.01,2013-03-28 17:28:00,
2013-03-28 12:29:00,45.5,27.5,30.30,SSE,157,2.0,8.0,49,0.00,,---,0.00,VWS V14.01,2013-03-28 17:29:00,
2013-03-28 12:30:00,45.5,27.5,30.30,SE,142,3.0,8.0,49,0.00,,---,0.00,VWS V14.01,2013-03-28 17:30:00,
2013-03-28 12:31:00,45.5,27.5,30.30,ESE,115,0.0,3.0,49,0.00,,---,0.00,VWS V14.01,2013-03-28 17:31:00,
2013-03-28 12:34:00,45.9,27.8,30.30,ENE,63,0.0,3.0,49,0.00,,---,0.00,VWS V14.01,2013-03-28 17:34:00,
2013-03-28 12:35:00,46.2,27.6,30.30,South,186,3.0,4.0,48,0.00,,---,0.00,VWS V14.01,2013-03-28 17:35:00,
2013-03-28 12:37:00,46.2,28.1,30.30,SE,132,2.0,5.0,49,0.00,,---,0.00,VWS V14.01,2013-03-28 17:37:00,
2013-03-28 12:39:00,46.3,27.2,30.30,SE,142,4.0,5.0,47,0.00,,---,0.00,VWS V14.01,2013-03-28 17:39:00,
2013-03-28 12:40:00,46.3,27.2,30.30,SSE,166,2.0,5.0,47,0.00,,---,0.00,VWS V14.01,2013-03-28 17:40:00,
2013-03-28 12:42:00,45.9,27.8,30.30,SSW,192,4.0,5.0,49,0.00,,---,0.00,VWS V14.01,2013-03-28 17:42:00,
2013-03-28 12:44:00,45.7,26.6,30.30,East,79,3.0,5.0,47,0.00,,---,0.00,VWS V14.01,2013-03-28 17:44:00,
2013-03-28 12:45:00,45.6,26.0,30.30,ESE,111,0.0,5.0,46,0.00,,---,0.00,VWS V14.01,2013-03-28 17:45:00,
2013-03-28 12:46:00,45.7,26.6,30.30,SE,126,0.0,5.0,47,0.00,,---,0.00,VWS V14.01,2013-03-28 17:46:00,
2013-03-28 12:47:00,45.8,26.7,30.29,SE,141,3.0,5.0,47,0.00,,---,0.00,VWS V14.01,2013-03-28 17:47:00,
2013-03-28 12:49:00,45.9,27.3,30.29,ESE,113,1.0,5.0,48,0.00,,---,0.00,VWS V14.01,2013-03-28 17:49:00,
2013-03-28 12:50:00,46.0,26.9,30.29,ESE,113,0.0,5.0,47,0.00,,---,0.00,VWS V14.01,2013-03-28 17:50:00,
2013-03-28 12:52:00,46.2,27.6,30.29,SE,139,1.0,5.0,48,0.00,,---,0.00,VWS V14.01,2013-03-28 17:52:00,
2013-03-28 12:54:00,46.1,27.0,30.29,SE,139,4.0,5.0,47,0.00,,---,0.00,VWS V14.01,2013-03-28 17:54:00,
2013-03-28 12:55:00,46.0,26.4,30.29,SSE,167,2.0,6.0,46,0.00,,---,0.00,VWS V14.01,2013-03-28 17:55:00,
2013-03-28 12:57:00,45.5,25.4,30.29,South,180,3.0,7.0,45,0.00,,---,0.00,VWS V14.01,2013-03-28 17:57:00,
2013-03-28 12:59:00,45.2,26.7,30.29,SE,136,0.0,7.0,48,0.00,,---,0.00,VWS V14.01,2013-03-28 17:59:00,
2013-03-28 13:00:00,45.2,27.2,30.29,SSE,163,3.0,7.0,49,0.00,,---,0.00,VWS V14.01,2013-03-28 18:00:00,
2013-03-28 13:02:00,45.4,26.9,30.29,SSE,151,1.0,3.0,48,0.00,,---,0.00,VWS V14.01,2013-03-28 18:02:00,
2013-03-28 13:04:00,45.6,27.6,30.28,East,97,1.0,3.0,49,0.00,,---,0.00,VWS V14.01,2013-03-28 18:04:00,
2013-03-28 13:05:00,45.9,27.3,30.28,SSW,192,0.0,3.0,48,0.00,,---,0.00,VWS V14.01,2013-03-28 18:05:00,
2013-03-28 13:07:00,46.3,26.7,30.28,ESE,102,0.0,3.0,46,0.00,,---,0.00,VWS V14.01,2013-03-28 18:07:00,
2013-03-28 13:09:00,46.6,26.4,30.29,SE,141,3.0,4.0,45,0.00,,---,0.00,VWS V14.01,2013-03-28 18:09:00,
2013-03-28 13:10:00,46.7,27.0,30.29,SSE,164,3.0,4.0,46,0.00,,---,0.00,VWS V14.01,2013-03-28 18:10:00,
2013-03-28 13:12:00,46.2,25.5,30.29,South,186,1.0,5.0,44,0.00,,---,0.00,VWS V14.01,2013-03-28 18:12:00,
2013-03-28 13:13:00,46.1,24.9,30.29,South,186,1.0,5.0,43,0.00,,---,0.00,VWS V14.01,2013-03-28 18:13:00,
2013-03-28 13:14:00,46.1,26.0,30.28,SE,141,1.0,5.0,45,0.00,,---,0.00,VWS V14.01,2013-03-28 18:14:00,
2013-03-28 13:15:00,46.0,25.3,30.29,SSE,163,0.0,5.0,44,0.00,,---,0.00,VWS V14.01,2013-03-28 18:15:00,
2013-03-28 13:18:00,45.8,24.6,30.28,South,182,3.0,7.0,43,0.00,,---,0.00,VWS V14.01,2013-03-28 18:18:00,
2013-03-28 13:19:00,45.6,25.0,30.28,South,182,1.0,7.0,44,0.00,,---,0.00,VWS V14.01,2013-03-28 18:19:00,
2013-03-28 13:20:00,45.6,27.1,30.28,SSE,164,3.0,7.0,48,0.00,,---,0.00,VWS V14.01,2013-03-28 18:20:00,
2013-03-28 13:23:00,45.5,26.5,30.28,ESE,104,2.0,7.0,47,0.00,,---,0.00,VWS V14.01,2013-03-28 18:23:00,
2013-03-28 13:24:00,45.7,26.1,30.28,SE,144,1.0,7.0,46,0.00,,---,0.00,VWS V14.01,2013-03-28 18:24:00,
2013-03-28 13:25:00,45.8,25.7,30.28,NE,44,2.0,7.0,45,0.00,,---,0.00,VWS V14.01,2013-03-28 18:25:00,
2013-03-28 13:28:00,45.9,25.8,30.28,SSE,159,4.0,7.0,45,0.00,,---,0.00,VWS V14.01,2013-03-28 18:28:00,
2013-03-28 13:29:00,45.8,25.7,30.28,SSE,157,4.0,7.0,45,0.00,,---,0.00,VWS V14.01,2013-03-28 18:29:00,
2013-03-28 13:30:00,45.6,25.5,30.28,SSE,157,0.0,7.0,45,0.00,,---,0.00,VWS V14.01,2013-03-28 18:30:00,
2013-03-28 13:33:00,45.9,25.8,30.28,SE,132,0.0,2.0,45,0.00,,---,0.00,VWS V14.01,2013-03-28 18:33:00,
2013-03-28 13:35:00,46.2,25.5,30.28,SE,144,1.0,2.0,44,0.00,,---,0.00,VWS V14.01,2013-03-28 18:35:00,
2013-03-28 13:38:00,46.5,26.3,30.28,SSE,159,2.0,5.0,45,0.00,,---,0.00,VWS V14.01,2013-03-28 18:38:00,
2013-03-28 13:40:00,46.4,26.2,30.28,SSE,159,4.0,6.0,45,0.00,,---,0.00,VWS V14.01,2013-03-28 18:40:00,
2013-03-28 13:43:00,45.9,26.3,30.27,South,176,3.0,6.0,46,0.00,,---,0.00,VWS V14.01,2013-03-28 18:43:00,
2013-03-28 13:45:00,45.8,26.2,30.27,SE,135,6.0,6.0,46,0.00,,---,0.00,VWS V14.01,2013-03-28 18:45:00,
2013-03-28 13:46:00,45.7,25.6,30.28,South,188,4.0,6.0,45,0.00,,---,0.00,VWS V14.01,2013-03-28 18:46:00,
2013-03-28 13:48:00,45.8,25.7,30.27,SSW,197,1.0,6.0,45,0.00,,---,0.00,VWS V14.01,2013-03-28 18:48:00,
2013-03-28 13:50:00,45.8,26.7,30.27,SE,129,4.0,7.0,47,0.00,,---,0.00,VWS V14.01,2013-03-28 18:50:00,
2013-03-28 13:51:00,45.8,26.2,30.27,SSE,155,4.0,7.0,46,0.00,,---,0.00,VWS V14.01,2013-03-28 18:51:00,
2013-03-28 13:53:00,45.7,25.6,30.27,South,173,0.0,7.0,45,0.00,,---,0.00,VWS V14.01,2013-03-28 18:53:00,
2013-03-28 13:55:00,45.9,25.8,30.27,South,172,2.0,7.0,45,0.00,,---,0.00,VWS V14.01,2013-03-28 18:55:00,
2013-03-28 13:56:00,45.9,26.8,30.27,South,171,5.0,7.0,47,0.00,,---,0.00,VWS V14.01,2013-03-28 18:56:00,
2013-03-28 13:58:00,45.7,25.6,30.27,SSE,159,4.0,7.0,45,0.00,,---,0.00,VWS V14.01,2013-03-28 18:58:00,
2013-03-28 13:59:00,45.6,25.5,30.27,SSE,159,3.0,7.0,45,0.00,,---,0.00,VWS V14.01,2013-03-28 18:59:00,
2013-03-28 14:00:00,45.6,26.0,30.27,SSE,167,4.0,7.0,46,0.00,,---,0.00,VWS V14.01,2013-03-28 19:00:00,
2013-03-28 14:01:00,45.6,26.0,30.27,South,182,3.0,4.0,46,0.00,,---,0.00,VWS V14.01,2013-03-28 19:01:00,
2013-03-28 14:03:00,45.6,25.5,30.27,SSW,196,4.0,5.0,45,0.00,,---,0.00,VWS V14.01,2013-03-28 19:03:00,
2013-03-28 14:04:00,45.6,25.5,30.27,South,182,3.0,5.0,45,0.00,,---,0.00,VWS V14.01,2013-03-28 19:04:00,
2013-03-28 14:05:00,45.7,27.1,30.27,SSE,161,1.0,5.0,48,0.00,,---,0.00,VWS V14.01,2013-03-28 19:05:00,
2013-03-28 14:06:00,45.8,26.7,30.27,SSE,153,1.0,7.0,47,0.00,,---,0.00,VWS V14.01,2013-03-28 19:06:00,
2013-03-28 14:08:00,46.0,26.4,30.27,SSW,192,4.0,7.0,46,0.00,,---,0.00,VWS V14.01,2013-03-28 19:08:00,
2013-03-28 14:09:00,46.1,26.5,30.26,SSW,192,2.0,7.0,46,0.00,,---,0.00,VWS V14.01,2013-03-28 19:09:00,
2013-03-28 14:10:00,46.1,28.0,30.26,SE,129,5.0,7.0,49,0.00,,---,0.00,VWS V14.01,2013-03-28 19:10:00,
2013-03-28 14:12:00,46.1,26.5,30.26,South,178,2.0,7.0,46,0.00,,---,0.00,VWS V14.01,2013-03-28 19:12:00,
2013-03-28 14:14:00,46.1,26.5,30.26,South,173,3.0,7.0,46,0.00,,---,0.00,VWS V14.01,2013-03-28 19:14:00,
2013-03-28 14:15:00,46.1,28.0,30.26,South,178,3.0,7.0,49,0.00,,---,0.00,VWS V14.01,2013-03-28 19:15:00,
2013-03-28 14:17:00,46.1,27.5,30.26,North,11,2.0,7.0,48,0.00,,---,0.00,VWS V14.01,2013-03-28 19:17:00,
2013-03-28 14:19:00,46.4,26.8,30.26,South,173,1.0,7.0,46,0.00,,---,0.00,VWS V14.01,2013-03-28 19:19:00,
2013-03-28 14:20:00,46.5,26.9,30.26,SSE,157,2.0,7.0,46,0.00,,---,0.00,VWS V14.01,2013-03-28 19:20:00,
2013-03-28 14:22:00,46.5,26.9,30.26,SSE,167,3.0,7.0,46,0.00,,---,0.00,VWS V14.01,2013-03-28 19:22:00,
2013-03-28 14:24:00,46.5,27.4,30.26,South,177,1.0,7.0,47,0.00,,---,0.00,VWS V14.01,2013-03-28 19:24:00,
2013-03-28 14:25:00,46.3,27.7,30.26,South,180,1.0,7.0,48,0.00,,---,0.00,VWS V14.01,2013-03-28 19:25:00,
2013-03-28 14:27:00,46.3,27.2,30.26,SSE,155,5.0,7.0,47,0.00,,---,0.00,VWS V14.01,2013-03-28 19:27:00,
2013-03-28 14:29:00,46.3,26.7,30.26,SSE,153,4.0,7.0,46,0.00,,---,0.00,VWS V14.01,2013-03-28 19:29:00,
2013-03-28 14:31:00,46.1,27.0,30.26,SSE,163,2.0,2.0,47,0.00,,---,0.00,VWS V14.01,2013-03-28 19:31:00,
2013-03-28 14:32:00,46.0,26.4,30.25,SSE,159,2.0,6.0,46,0.00,,---,0.00,VWS V14.01,2013-03-28 19:32:00,
2013-03-28 14:34:00,46.1,26.5,30.25,SSE,155,5.0,6.0,46,0.00,,---,0.00,VWS V14.01,2013-03-28 19:34:00,
2013-03-28 14:36:00,46.1,27.0,30.25,SE,124,1.0,6.0,47,0.00,,---,0.00,VWS V14.01,2013-03-28 19:36:00,
2013-03-28 14:38:00,46.3,26.7,30.25,SSE,148,2.0,6.0,46,0.00,,---,0.00,VWS V14.01,2013-03-28 19:38:00,
2013-03-28 14:39:00,46.5,26.9,30.25,SE,140,7.0,7.0,46,0.00,,---,0.00,VWS V14.01,2013-03-28 19:39:00,
2013-03-28 14:41:00,46.6,26.9,30.25,SSE,157,0.0,7.0,46,0.00,,---,0.00,VWS V14.01,2013-03-28 19:41:00,
2013-03-28 14:43:00,46.9,26.7,30.25,South,186,0.0,7.0,45,0.00,,---,0.00,VWS V14.01,2013-03-28 19:43:00,
2013-03-28 14:44:00,47.0,26.8,30.25,South,189,2.0,7.0,45,0.00,,---,0.00,VWS V14.01,2013-03-28 19:44:00,
2013-03-28 14:46:00,46.9,28.8,30.25,WSW,250,1.0,7.0,49,0.00,,---,0.00,VWS V14.01,2013-03-28 19:46:00,
2013-03-28 14:48:00,46.6,29.9,30.25,WSW,250,2.0,7.0,52,0.00,,---,0.00,VWS V14.01,2013-03-28 19:48:00,
2013-03-28 14:49:00,46.4,30.2,30.25,WSW,246,4.0,7.0,53,0.00,,---,0.00,VWS V14.01,2013-03-28 19:49:00,
2013-03-28 14:51:00,45.9,30.2,30.25,NE,50,4.0,7.0,54,0.00,,---,0.00,VWS V14.01,2013-03-28 19:51:00,
2013-03-28 14:53:00,46.0,28.9,30.25,NNW,343,2.0,7.0,51,0.00,,---,0.00,VWS V14.01,2013-03-28 19:53:00,
2013-03-28 14:54:00,46.1,29.0,30.25,NW,317,2.0,7.0,51,0.00,,---,0.00,VWS V14.01,2013-03-28 19:54:00,
2013-03-28 14:57:00,46.5,27.9,30.25,SSE,153,2.0,7.0,48,0.00,,---,0.00,VWS V14.01,2013-03-28 19:57:00,
2013-03-28 14:58:00,46.6,28.0,30.25,South,174,2.0,7.0,48,0.00,,---,0.00,VWS V14.01,2013-03-28 19:58:00,
2013-03-28 14:59:00,46.7,28.1,30.25,SSE,155,2.0,7.0,48,0.00,,---,0.00,VWS V14.01,2013-03-28 19:59:00,
2013-03-28 15:02:00,46.5,28.4,30.25,SW,227,2.0,6.0,49,0.87,,---,0.00,VWS V14.01,2013-03-28 20:02:00,
2013-03-28 15:03:00,46.4,28.3,30.25,SSW,202,3.0,6.0,49,0.87,,---,0.00,VWS V14.01,2013-03-28 20:03:00,
2013-03-28 15:04:00,46.3,29.2,30.25,SW,235,3.0,6.0,51,0.87,,---,0.00,VWS V14.01,2013-03-28 20:04:00,
2013-03-28 15:07:00,45.8,30.1,30.25,SW,221,1.0,9.0,54,0.87,,---,0.00,VWS V14.01,2013-03-28 20:07:00,
2013-03-28 15:09:00,45.7,29.1,30.24,West,273,3.0,9.0,52,0.87,,---,0.00,VWS V14.01,2013-03-28 20:09:00,
2013-03-28 15:10:00,45.5,29.8,30.24,WSW,244,5.0,9.0,54,0.87,,---,0.00,VWS V14.01,2013-03-28 20:10:00,
2013-03-28 15:13:00,45.4,29.3,30.24,SW,220,0.0,9.0,53,0.87,,---,0.00,VWS V14.01,2013-03-28 20:13:00,
2013-03-28 15:14:00,45.5,29.4,30.24,South,184,2.0,9.0,53,0.87,,---,0.00,VWS V14.01,2013-03-28 20:14:00,
2013-03-28 15:15:00,45.7,30.5,30.24,SSW,198,2.0,9.0,55,0.87,,---,0.00,VWS V14.01,2013-03-28 20:15:00,
2013-03-28 15:18:00,45.8,31.5,30.24,SSW,211,3.0,9.0,57,0.87,,---,0.00,VWS V14.01,2013-03-28 20:18:00,
2013-03-28 15:19:00,45.8,31.0,30.24,SSW,203,2.0,9.0,56,0.87,,---,0.00,VWS V14.01,2013-03-28 20:19:00,
2013-03-28 15:20:00,45.7,31.4,30.24,WSW,240,4.0,9.0,57,0.87,,---,0.00,VWS V14.01,2013-03-28 20:20:00,
2013-03-28 15:23:00,45.1,31.2,30.24,SW,234,4.0,9.0,58,0.87,,---,0.00,VWS V14.01,2013-03-28 20:23:00,
2013-03-28 15:24:00,45.0,30.3,30.24,SW,221,3.0,9.0,56,0.87,,---,0.00,VWS V14.01,2013-03-28 20:24:00,
2013-03-28 15:25:00,44.9,30.6,30.24,SSW,195,4.0,9.0,57,0.87,,---,0.00,VWS V14.01,2013-03-28 20:25:00,
2013-03-28 15:28:00,45.0,31.1,30.24,WSW,238,4.0,9.0,58,0.87,,---,0.00,VWS V14.01,2013-03-28 20:28:00,
2013-03-28 15:29:00,45.1,31.6,30.24,SSW,207,2.0,9.0,59,0.87,,---,0.00,VWS V14.01,2013-03-28 20:29:00,
2013-03-28 15:30:00,45.1,31.6,30.24,SSW,200,2.0,9.0,59,0.87,,---,0.00,VWS V14.01,2013-03-28 20:30:00,
2013-03-28 15:33:00,44.9,31.0,30.23,WSW,244,6.0,7.0,58,0.87,,---,0.00,VWS V14.01,2013-03-28 20:33:00,
2013-03-28 15:34:00,44.7,30.9,30.23,WSW,248,6.0,8.0,58,0.87,,---,0.00,VWS V14.01,2013-03-28 20:34:00,
2013-03-28 15:35:00,44.3,30.9,30.23,WSW,238,6.0,8.0,59,0.87,,---,0.00,VWS V14.01,2013-03-28 20:35:00,
2013-03-28 15:38:00,43.9,31.3,30.24,WSW,244,5.0,9.0,61,0.87,,---,0.00,VWS V14.01,2013-03-28 20:38:00,
2013-03-28 15:39:00,43.9,31.7,30.24,WSW,243,6.0,9.0,62,0.87,,---,0.00,VWS V14.01,2013-03-28 20:39:00,
2013-03-28 15:40:00,43.8,31.6,30.24,SW,236,7.0,9.0,62,0.87,,---,0.00,VWS V14.01,2013-03-28 20:40:00,
2013-03-28 15:43:00,43.7,32.0,30.24,WSW,244,6.0,9.0,63,0.87,,---,0.00,VWS V14.01,2013-03-28 20:43:00,
2013-03-28 15:44:00,43.6,31.5,30.24,SW,234,5.0,9.0,62,0.87,,---,0.00,VWS V14.01,2013-03-28 20:44:00,
2013-03-28 15:46:00,43.7,32.0,30.24,WSW,252,5.0,9.0,63,0.87,,---,0.00,VWS V14.01,2013-03-28 20:46:00,
2013-03-28 15:48:00,43.8,32.4,30.23,SW,217,9.0,9.0,64,0.87,,---,0.00,VWS V14.01,2013-03-28 20:48:00,
2013-03-28 15:49:00,43.9,32.5,30.23,SW,234,5.0,9.0,64,0.87,,---,0.00,VWS V14.01,2013-03-28 20:49:00,
2013-03-28 15:51:00,44.0,32.6,30.23,WSW,243,4.0,9.0,64,0.87,,---,0.00,VWS V14.01,2013-03-28 20:51:00,
2013-03-28 15:52:00,44.1,32.7,30.23,SW,231,2.0,9.0,64,0.87,,---,0.00,VWS V14.01,2013-03-28 20:52:00,
2013-03-28 15:53:00,44.2,32.0,30.23,WSW,251,5.0,9.0,62,0.87,,---,0.00,VWS V14.01,2013-03-28 20:53:00,
2013-03-28 15:55:00,44.2,31.6,30.23,WSW,243,4.0,9.0,61,0.87,,---,0.00,VWS V14.01,2013-03-28 20:55:00,
2013-03-28 15:57:00,44.2,32.0,30.23,WSW,239,5.0,9.0,62,0.87,,---,0.00,VWS V14.01,2013-03-28 20:57:00,
2013-03-28 15:58:00,44.1,31.5,30.23,WSW,248,6.0,9.0,61,0.87,,---,0.00,VWS V14.01,2013-03-28 20:58:00,
2013-03-28 16:00:00,44.0,32.2,30.23,WSW,255,5.0,9.0,63,0.87,,---,0.00,VWS V14.01,2013-03-28 21:00:00,
2013-03-28 16:02:00,43.9,32.1,30.23,WSW,257,6.0,6.0,63,0.87,,---,0.00,VWS V14.01,2013-03-28 21:02:00,
2013-03-28 16:04:00,43.7,31.1,30.23,WSW,251,5.0,7.0,61,0.87,,---,0.00,VWS V14.01,2013-03-28 21:04:00,
2013-03-28 16:05:00,43.7,31.5,30.23,WSW,250,6.0,7.0,62,0.87,,---,0.00,VWS V14.01,2013-03-28 21:05:00,
2013-03-28 16:07:00,43.6,31.0,30.22,WSW,252,5.0,7.0,61,0.87,,---,0.00,VWS V14.01,2013-03-28 21:07:00,
2013-03-28 16:09:00,43.5,31.4,30.23,WSW,248,4.0,7.0,62,0.87,,---,0.00,VWS V14.01,2013-03-28 21:09:00,
2013-03-28 16:10:00,43.6,31.9,30.23,West,268,3.0,7.0,63,0.87,,---,0.00,VWS V14.01,2013-03-28 21:10:00,
2013-03-28 16:12:00,43.6,32.2,30.23,WSW,257,5.0,7.0,64,0.87,,---,0.00,VWS V14.01,2013-03-28 21:12:00,
2013-03-28 16:14:00,43.6,31.9,30.23,West,262,4.0,7.0,63,0.87,,---,0.00,VWS V14.01,2013-03-28 21:14:00,
2013-03-28 16:15:00,43.6,32.2,30.23,West,260,3.0,7.0,64,0.87,,---,0.00,VWS V14.01,2013-03-28 21:15:00,
2013-03-28 16:17:00,43.6,32.2,30.23,West,265,3.0,7.0,64,0.87,,---,0.00,VWS V14.01,2013-03-28 21:17:00,
2013-03-28 16:19:00,43.6,32.6,30.23,WSW,246,3.0,7.0,65,0.87,,---,0.00,VWS V14.01,2013-03-28 21:19:00,
2013-03-28 16:21:00,43.7,32.3,30.23,WSW,253,3.0,7.0,64,0.87,,---,0.00,VWS V14.01,2013-03-28 21:21:00,
2013-03-28 16:22:00,43.7,32.7,30.23,WSW,246,4.0,9.0,65,0.87,,---,0.00,VWS V14.01,2013-03-28 21:22:00,
2013-03-28 16:24:00,43.7,31.5,30.23,West,260,4.0,9.0,62,0.87,,---,0.00,VWS V14.01,2013-03-28 21:24:00,
2013-03-28 16:26:00,43.7,32.0,30.23,WSW,255,5.0,9.0,63,0.87,,---,0.00,VWS V14.01,2013-03-28 21:26:00,
2013-03-28 16:27:00,43.6,32.2,30.23,WSW,251,4.0,9.0,64,0.87,,---,0.00,VWS V14.01,2013-03-28 21:27:00,
2013-03-28 16:29:00,43.5,32.2,30.23,WSW,255,6.0,9.0,64,0.87,,---,0.00,VWS V14.01,2013-03-28 21:29:00,
2013-03-28 16:31:00,43.5,31.8,30.23,West,263,4.0,5.0,63,0.00,,---,0.00,VWS V14.01,2013-03-28 21:31:00,
2013-03-28 16:32:00,43.4,32.4,30.23,West,264,5.0,6.0,65,0.00,,---,0.00,VWS V14.01,2013-03-28 21:32:00,
2013-03-28 16:33:00,43.5,32.5,30.23,WSW,252,4.0,6.0,65,0.00,,---,0.00,VWS V14.01,2013-03-28 21:33:00,
2013-03-28 16:34:00,43.5,32.5,30.23,WSW,248,4.0,6.0,65,0.00,,---,0.00,VWS V14.01,2013-03-28 21:34:00,
2013-03-28 16:36:00,43.5,32.5,30.23,West,263,6.0,6.0,65,0.00,,---,0.00,VWS V14.01,2013-03-28 21:36:00,
2013-03-28 16:37:00,43.6,32.2,30.23,WSW,246,4.0,7.0,64,0.00,,---,0.00,VWS V14.01,2013-03-28 21:37:00,
2013-03-28 16:38:00,43.6,32.2,30.23,WSW,247,5.0,7.0,64,0.00,,---,0.00,VWS V14.01,2013-03-28 21:38:00,
2013-03-28 16:39:00,43.8,31.6,30.23,SW,236,5.0,7.0,62,0.00,,---,0.00,VWS V14.01,2013-03-28 21:39:00,
2013-03-28 16:41:00,44.1,31.9,30.23,WSW,242,7.0,7.0,62,0.00,,---,0.00,VWS V14.01,2013-03-28 21:41:00,
2013-03-28 16:42:00,44.3,31.3,30.23,SW,234,1.0,7.0,60,0.00,,---,0.00,VWS V14.01,2013-03-28 21:42:00,
2013-03-28 16:43:00,44.3,31.7,30.23,WSW,247,3.0,7.0,61,0.00,,---,0.00,VWS V14.01,2013-03-28 21:43:00,
2013-03-28 16:44:00,44.6,31.6,30.23,SSW,210,5.0,7.0,60,0.00,,---,0.00,VWS V14.01,2013-03-28 21:44:00,
2013-03-28 16:47:00,44.9,31.5,30.23,SW,221,3.0,7.0,59,0.00,,---,0.00,VWS V14.01,2013-03-28 21:47:00,
2013-03-28 16:48:00,45.0,31.5,30.23,SW,229,3.0,7.0,59,0.00,,---,0.00,VWS V14.01,2013-03-28 21:48:00,
2013-03-28 16:49:00,45.1,31.6,30.23,SW,229,3.0,7.0,59,0.00,,---,0.00,VWS V14.01,2013-03-28 21:49:00,
2013-03-28 16:52:00,45.2,31.7,30.22,SW,230,3.0,7.0,59,0.00,,---,0.00,VWS V14.01,2013-03-28 21:52:00,
2013-03-28 16:53:00,45.2,31.7,30.22,WSW,238,3.0,7.0,59,0.00,,---,0.00,VWS V14.01,2013-03-28 21:53:00,
2013-03-28 16:54:00,45.2,31.3,30.22,SW,229,4.0,7.0,58,0.00,,---,0.00,VWS V14.01,2013-03-28 21:54:00,
2013-03-28 16:57:00,45.2,30.9,30.22,WSW,246,2.0,7.0,57,0.00,,---,0.00,VWS V14.01,2013-03-28 21:57:00,
2013-03-28 16:58:00,45.2,31.7,30.22,WSW,248,3.0,7.0,59,0.00,,---,0.00,VWS V14.01,2013-03-28 21:58:00,
2013-03-28 16:59:00,45.2,31.3,30.22,WSW,256,6.0,7.0,58,0.00,,---,0.00,VWS V14.01,2013-03-28 21:59:00,
2013-03-28 17:03:00,45.0,32.0,30.22,WSW,257,4.0,5.0,60,0.00,,---,0.00,VWS V14.01,2013-03-28 22:03:00,
2013-03-28 17:04:00,44.9,31.9,30.22,West,260,3.0,5.0,60,0.00,,---,0.00,VWS V14.01,2013-03-28 22:04:00,
2013-03-28 17:05:00,44.8,31.8,30.22,West,265,4.0,5.0,60,0.00,,---,0.00,VWS V14.01,2013-03-28 22:05:00,
2013-03-28 17:08:00,44.4,32.6,30.23,West,265,3.0,5.0,63,0.00,,---,0.00,VWS V14.01,2013-03-28 22:08:00,
2013-03-28 17:09:00,44.3,32.5,30.22,West,269,4.0,5.0,63,0.00,,---,0.00,VWS V14.01,2013-03-28 22:09:00,
2013-03-28 17:10:00,44.3,32.5,30.22,West,266,3.0,5.0,63,0.00,,---,0.00,VWS V14.01,2013-03-28 22:10:00,
2013-03-28 17:13:00,44.0,32.2,30.22,West,265,2.0,5.0,63,0.00,,---,0.00,VWS V14.01,2013-03-28 22:13:00,
2013-03-28 17:14:00,44.0,32.6,30.22,West,259,3.0,5.0,64,0.00,,---,0.00,VWS V14.01,2013-03-28 22:14:00,
2013-03-28 17:15:00,44.0,32.6,30.22,West,259,0.0,5.0,64,0.00,,---,0.00,VWS V14.01,2013-03-28 22:15:00,
2013-03-28 17:19:00,44.4,32.2,30.22,WSW,256,4.0,5.0,62,0.00,,---,0.00,VWS V14.01,2013-03-28 22:19:00,
2013-03-28 17:20:00,44.4,31.8,30.22,West,263,3.0,5.0,61,0.00,,---,0.00,VWS V14.01,2013-03-28 22:20:00,
2013-03-28 17:24:00,44.2,32.4,30.23,West,260,3.0,5.0,63,0.00,,---,0.00,VWS V14.01,2013-03-28 22:24:00,
2013-03-28 17:25:00,44.1,32.3,30.23,WSW,252,4.0,5.0,63,0.00,,---,0.00,VWS V14.01,2013-03-28 22:25:00,
2013-03-28 17:29:00,44.2,32.0,30.23,WSW,250,3.0,6.0,62,0.00,,---,0.00,VWS V14.01,2013-03-28 22:29:00,
2013-03-28 17:30:00,44.2,32.0,30.23,WSW,250,1.0,6.0,62,0.00,,---,0.00,VWS V14.01,2013-03-28 22:30:00,
2013-03-28 17:34:00,44.5,32.7,30.22,WSW,250,0.0,3.0,63,0.00,,---,0.00,VWS V14.01,2013-03-28 22:34:00,
2013-03-28 17:35:00,44.6,32.4,30.22,WSW,250,2.0,3.0,62,0.00,,---,0.00,VWS V14.01,2013-03-28 22:35:00,
2013-03-28 17:39:00,44.9,32.3,30.22,WSW,250,2.0,3.0,61,0.00,,---,0.00,VWS V14.01,2013-03-28 22:39:00,
2013-03-28 17:40:00,44.9,32.3,30.22,WSW,250,2.0,3.0,61,0.00,,---,0.00,VWS V14.01,2013-03-28 22:40:00,
2013-03-28 17:45:00,45.0,32.8,30.22,WSW,250,1.0,3.0,62,0.00,,---,0.00,VWS V14.01,2013-03-28 22:45:00,
2013-03-28 17:50:00,44.9,32.7,30.21,WSW,250,1.0,3.0,62,0.00,,---,0.00,VWS V14.01,2013-03-28 22:50:00,
2013-03-28 17:55:00,45.1,32.5,30.21,WSW,250,1.0,3.0,61,0.00,,---,0.00,VWS V14.01,2013-03-28 22:55:00,
2013-03-28 18:00:00,45.5,32.4,30.21,WSW,251,2.0,3.0,60,0.00,,---,0.00,VWS V14.01,2013-03-28 23:00:00,
2013-03-28 18:05:00,45.8,32.3,30.21,WSW,251,0.0,1.0,59,0.00,,---,0.00,VWS V14.01,2013-03-28 23:05:00,
2013-03-28 18:10:00,46.1,32.6,30.21,WSW,251,2.0,2.0,59,0.00,,---,0.00,VWS V14.01,2013-03-28 23:10:00,
2013-03-28 18:11:00,46.2,32.7,30.21,WSW,251,2.0,2.0,59,0.00,,---,0.00,VWS V14.01,2013-03-28 23:11:00,
2013-03-28 18:15:00,46.2,32.7,30.21,WSW,252,1.0,2.0,59,0.00,,---,0.00,VWS V14.01,2013-03-28 23:15:00,
2013-03-28 18:16:00,46.2,32.7,30.21,WSW,252,0.0,2.0,59,0.00,,---,0.00,VWS V14.01,2013-03-28 23:16:00,
2013-03-28 18:20:00,46.6,33.0,30.21,WSW,252,0.0,2.0,59,0.00,,---,0.00,VWS V14.01,2013-03-28 23:20:00,
2013-03-28 18:21:00,46.6,33.0,30.21,WSW,252,0.0,2.0,59,0.00,,---,0.00,VWS V14.01,2013-03-28 23:21:00,
2013-03-28 18:26:00,46.8,32.8,30.21,East,94,1.0,2.0,58,0.00,,---,0.00,VWS V14.01,2013-03-28 23:26:00,
2013-03-28 18:27:00,46.8,32.8,30.21,East,95,1.0,2.0,58,0.00,,---,0.00,VWS V14.01,2013-03-28 23:27:00,
2013-03-28 18:31:00,46.7,32.3,30.21,ESE,103,0.0,1.0,57,0.00,,---,0.00,VWS V14.01,2013-03-28 23:31:00,
2013-03-28 18:32:00,46.7,32.7,30.21,ESE,103,0.0,1.0,58,0.00,,---,0.00,VWS V14.01,2013-03-28 23:32:00,
2013-03-28 18:36:00,46.6,32.6,30.21,SSE,149,2.0,3.0,58,0.00,,---,0.00,VWS V14.01,2013-03-28 23:36:00,
2013-03-28 18:37:00,46.6,32.6,30.21,SE,146,0.0,3.0,58,0.00,,---,0.00,VWS V14.01,2013-03-28 23:37:00,
2013-03-28 18:41:00,46.4,32.9,30.20,NE,52,0.0,3.0,59,0.00,,---,0.00,VWS V14.01,2013-03-28 23:41:00,
2013-03-28 18:42:00,46.3,32.8,30.20,ENE,61,0.0,3.0,59,0.00,,---,0.00,VWS V14.01,2013-03-28 23:42:00,
2013-03-28 18:46:00,46.1,33.0,30.20,ESE,105,0.0,3.0,60,0.00,,---,0.00,VWS V14.01,2013-03-28 23:46:00,
2013-03-28 18:47:00,46.0,32.9,30.20,ESE,105,0.0,3.0,60,0.00,,---,0.00,VWS V14.01,2013-03-28 23:47:00,
2013-03-28 18:51:00,45.7,33.0,30.21,ESE,105,0.0,3.0,61,0.00,,---,0.00,VWS V14.01,2013-03-28 23:51:00,
2013-03-28 18:52:00,45.6,32.9,30.20,ESE,105,0.0,3.0,61,0.00,,---,0.00,VWS V14.01,2013-03-28 23:52:00,
2013-03-28 18:57:00,45.3,33.1,30.20,ESE,105,0.0,3.0,62,0.00,,---,0.00,VWS V14.01,2013-03-28 23:57:00,
2013-03-28 19:02:00,45.0,33.2,30.21,ESE,105,0.0,0.0,63,0.00,,---,0.00,VWS V14.01,2013-03-29 00:02:00,
2013-03-28 19:07:00,44.7,33.3,30.21,ESE,105,0.0,1.0,64,0.00,,---,0.00,VWS V14.01,2013-03-29 00:07:00,
2013-03-28 19:08:00,44.6,33.2,30.21,ESE,105,0.0,1.0,64,0.00,,---,0.00,VWS V14.01,2013-03-29 00:08:00,
2013-03-28 19:12:00,44.2,33.2,30.21,ESE,105,0.0,1.0,65,0.00,,---,0.00,VWS V14.01,2013-03-29 00:12:00,
2013-03-28 19:13:00,44.2,33.2,30.21,ESE,105,0.0,1.0,65,0.00,,---,0.00,VWS V14.01,2013-03-29 00:13:00,
2013-03-28 19:17:00,43.9,32.9,30.21,ESE,104,0.0,1.0,65,0.00,,---,0.00,VWS V14.01,2013-03-29 00:17:00,
2013-03-28 19:18:00,43.9,33.3,30.21,ESE,104,0.0,1.0,66,0.00,,---,0.00,VWS V14.01,2013-03-29 00:18:00,
2013-03-28 19:22:00,43.5,32.9,30.21,ESE,104,0.0,2.0,66,0.00,,---,0.00,VWS V14.01,2013-03-29 00:22:00,
2013-03-28 19:23:00,43.5,33.3,30.21,ESE,104,0.0,2.0,67,0.00,,---,0.00,VWS V14.01,2013-03-29 00:23:00,
2013-03-28 19:27:00,43.2,33.0,30.22,ESE,104,0.0,2.0,67,0.00,,---,0.00,VWS V14.01,2013-03-29 00:27:00,
2013-03-28 19:28:00,43.2,33.0,30.22,ESE,104,0.0,2.0,67,0.00,,---,0.00,VWS V14.01,2013-03-29 00:28:00,
2013-03-28 19:32:00,42.9,32.7,30.22,ESE,104,0.0,0.0,67,0.00,,---,0.00,VWS V14.01,2013-03-29 00:32:00,
2013-03-28 19:33:00,42.8,33.0,30.22,ESE,104,0.0,0.0,68,0.00,,---,0.00,VWS V14.01,2013-03-29 00:33:00,
2013-03-28 19:37:00,42.5,32.7,30.22,ESE,104,0.0,0.0,68,0.00,,---,0.00,VWS V14.01,2013-03-29 00:37:00,
2013-03-28 19:38:00,42.5,32.7,30.22,ESE,104,0.0,0.0,68,0.00,,---,0.00,VWS V14.01,2013-03-29 00:38:00,
2013-03-28 19:42:00,42.2,32.8,30.22,ESE,104,0.0,0.0,69,0.00,,---,0.00,VWS V14.01,2013-03-29 00:42:00,
2013-03-28 19:43:00,42.2,32.8,30.22,ESE,104,0.0,0.0,69,0.00,,---,0.00,VWS V14.01,2013-03-29 00:43:00,
2013-03-28 19:47:00,41.9,32.8,30.22,ESE,104,0.0,0.0,70,0.00,,---,0.00,VWS V14.01,2013-03-29 00:47:00,
2013-03-28 19:48:00,41.9,33.2,30.22,ESE,104,0.0,0.0,71,0.00,,---,0.00,VWS V14.01,2013-03-29 00:48:00,
2013-03-28 19:53:00,41.6,32.9,30.22,ESE,104,0.0,0.0,71,0.00,,---,0.00,VWS V14.01,2013-03-29 00:53:00,
2013-03-28 19:54:00,41.5,32.5,30.22,ESE,104,0.0,0.0,70,0.00,,---,0.00,VWS V14.01,2013-03-29 00:54:00,
2013-03-28 19:58:00,41.3,32.6,30.22,ESE,104,0.0,0.0,71,0.00,,---,0.00,VWS V14.01,2013-03-29 00:58:00,
2013-03-28 19:59:00,41.3,32.6,30.22,ESE,104,0.0,0.0,71,0.00,,---,0.00,VWS V14.01,2013-03-29 00:59:00,
2013-03-28 20:03:00,41.0,32.7,30.22,ESE,104,0.0,0.0,72,0.00,,---,0.00,VWS V14.01,2013-03-29 01:03:00,
2013-03-28 20:04:00,40.9,32.6,30.22,ESE,104,0.0,0.0,72,0.00,,---,0.00,VWS V14.01,2013-03-29 01:04:00,
2013-03-28 20:08:00,40.7,32.7,30.23,ESE,104,0.0,0.0,73,0.00,,---,0.00,VWS V14.01,2013-03-29 01:08:00,
2013-03-28 20:09:00,40.6,32.6,30.22,ESE,104,0.0,0.0,73,0.00,,---,0.00,VWS V14.01,2013-03-29 01:09:00,
2013-03-28 20:13:00,40.4,32.8,30.23,ESE,104,0.0,0.0,74,0.00,,---,0.00,VWS V14.01,2013-03-29 01:13:00,
2013-03-28 20:14:00,40.4,32.8,30.22,ESE,104,0.0,0.0,74,0.00,,---,0.00,VWS V14.01,2013-03-29 01:14:00,
2013-03-28 20:18:00,40.1,32.5,30.22,ESE,104,0.0,0.0,74,0.00,,---,0.00,VWS V14.01,2013-03-29 01:18:00,
2013-03-28 20:19:00,40.1,32.5,30.22,ESE,104,0.0,0.0,74,0.00,,---,0.00,VWS V14.01,2013-03-29 01:19:00,
2013-03-28 20:24:00,39.9,32.6,30.22,ESE,104,0.0,0.0,75,0.00,,---,0.00,VWS V14.01,2013-03-29 01:24:00,
2013-03-28 20:29:00,39.7,32.8,30.22,ESE,104,0.0,1.0,76,0.00,,---,0.00,VWS V14.01,2013-03-29 01:29:00,
2013-03-28 20:34:00,39.4,32.8,30.23,ESE,104,0.0,0.0,77,0.00,,---,0.00,VWS V14.01,2013-03-29 01:34:00,
2013-03-28 20:39:00,39.1,32.5,30.23,ESE,104,0.0,0.0,77,0.00,,---,0.00,VWS V14.01,2013-03-29 01:39:00,
2013-03-28 20:44:00,38.9,32.6,30.23,ESE,104,0.0,0.0,78,0.00,,---,0.00,VWS V14.01,2013-03-29 01:44:00,
2013-03-28 20:45:00,38.9,32.3,30.23,ESE,104,0.0,0.0,77,0.00,,---,0.00,VWS V14.01,2013-03-29 01:45:00,
2013-03-28 20:49:00,38.7,32.4,30.23,ESE,104,0.0,0.0,78,0.00,,---,0.00,VWS V14.01,2013-03-29 01:49:00,
2013-03-28 20:50:00,38.6,32.3,30.23,ESE,104,0.0,0.0,78,0.00,,---,0.00,VWS V14.01,2013-03-29 01:50:00,
2013-03-28 20:54:00,38.6,32.7,30.23,ESE,104,0.0,0.0,79,0.00,,---,0.00,VWS V14.01,2013-03-29 01:54:00,
2013-03-28 20:55:00,38.6,32.7,30.23,ESE,104,0.0,0.0,79,0.00,,---,0.00,VWS V14.01,2013-03-29 01:55:00,
2013-03-28 20:59:00,38.6,32.3,30.23,ESE,104,0.0,0.0,78,0.00,,---,0.00,VWS V14.01,2013-03-29 01:59:00,
2013-03-28 21:00:00,38.6,32.3,30.23,ESE,104,0.0,0.0,78,0.00,,---,0.00,VWS V14.01,2013-03-29 02:00:00,
2013-03-28 21:04:00,38.6,32.3,30.23,ESE,104,0.0,0.0,78,0.00,,---,0.00,VWS V14.01,2013-03-29 02:04:00,
2013-03-28 21:05:00,38.6,32.3,30.23,ESE,104,0.0,0.0,78,0.00,,---,0.00,VWS V14.01,2013-03-29 02:05:00,
2013-03-28 21:09:00,38.4,32.2,30.23,ESE,104,0.0,1.0,78,0.00,,---,0.00,VWS V14.01,2013-03-29 02:09:00,
2013-03-28 21:10:00,38.4,32.2,30.22,ESE,104,0.0,1.0,78,0.00,,---,0.00,VWS V14.01,2013-03-29 02:10:00,
2013-03-28 21:15:00,38.4,32.2,30.22,East,84,0.0,2.0,78,0.00,,---,0.00,VWS V14.01,2013-03-29 02:15:00,
2013-03-28 21:20:00,38.5,32.2,30.22,ENE,71,0.0,3.0,78,0.00,,---,0.00,VWS V14.01,2013-03-29 02:20:00,
2013-03-28 21:25:00,38.6,32.0,30.22,ENE,71,0.0,3.0,77,0.00,,---,0.00,VWS V14.01,2013-03-29 02:25:00,
2013-03-28 21:30:00,38.6,32.0,30.23,ENE,72,1.0,3.0,77,0.00,,---,0.00,VWS V14.01,2013-03-29 02:30:00,
2013-03-28 21:35:00,38.6,32.0,30.23,ENE,74,2.0,2.0,77,0.00,,---,0.00,VWS V14.01,2013-03-29 02:35:00,
2013-03-28 21:36:00,38.7,32.1,30.23,ENE,74,0.0,2.0,77,0.00,,---,0.00,VWS V14.01,2013-03-29 02:36:00,
2013-03-28 21:40:00,38.7,31.8,30.23,ENE,77,0.0,2.0,76,0.00,,---,0.00,VWS V14.01,2013-03-29 02:40:00,
2013-03-28 21:41:00,38.7,31.8,30.23,ENE,77,0.0,2.0,76,0.00,,---,0.00,VWS V14.01,2013-03-29 02:41:00,
2013-03-28 21:45:00,38.7,31.8,30.22,ENE,70,0.0,4.0,76,0.00,,---,0.00,VWS V14.01,2013-03-29 02:45:00,
2013-03-28 21:46:00,38.7,31.8,30.23,ENE,70,0.0,4.0,76,0.00,,---,0.00,VWS V14.01,2013-03-29 02:46:00,
2013-03-28 21:50:00,38.7,31.8,30.23,East,98,0.0,4.0,76,0.00,,---,0.00,VWS V14.01,2013-03-29 02:50:00,
2013-03-28 21:51:00,38.7,31.8,30.22,East,98,0.0,4.0,76,0.00,,---,0.00,VWS V14.01,2013-03-29 02:51:00,
2013-03-28 21:52:00,38.7,31.8,30.23,ESE,108,1.0,4.0,76,0.00,,---,0.00,VWS V14.01,2013-03-29 02:52:00,
2013-03-28 21:55:00,38.8,31.6,30.22,East,101,0.0,4.0,75,0.00,,---,0.00,VWS V14.01,2013-03-29 02:55:00,
2013-03-28 21:56:00,38.8,31.6,30.22,East,101,0.0,4.0,75,0.00,,---,0.00,VWS V14.01,2013-03-29 02:56:00,
2013-03-28 21:57:00,38.8,31.6,30.22,East,101,0.0,4.0,75,0.00,,---,0.00,VWS V14.01,2013-03-29 02:57:00,
2013-03-28 21:59:00,38.6,30.7,30.21,ENE,78,0.0,2.0,73,0.00,,---,0.00,VWS V14.01,2013-03-29 02:59:00,
2013-03-28 22:00:00,38.5,30.6,30.21,ENE,78,0.0,2.0,73,0.00,,---,0.00,VWS V14.01,2013-03-29 03:00:00,
2013-03-28 22:01:00,38.7,31.5,30.22,East,101,0.0,0.0,75,0.00,,---,0.00,VWS V14.01,2013-03-29 03:01:00,
2013-03-28 22:02:00,38.6,31.4,30.22,East,101,0.0,1.0,75,0.00,,---,0.00,VWS V14.01,2013-03-29 03:02:00,
2013-03-28 22:03:00,38.4,30.5,30.21,ENE,78,0.0,0.0,73,0.00,,---,0.00,VWS V14.01,2013-03-29 03:03:00,
2013-03-28 22:06:00,38.6,31.4,30.22,East,101,1.0,1.0,75,0.00,,---,0.00,VWS V14.01,2013-03-29 03:06:00,
2013-03-28 22:07:00,38.6,31.4,30.22,ESE,102,0.0,1.0,75,0.00,,---,0.00,VWS V14.01,2013-03-29 03:07:00,
2013-03-28 22:11:00,38.6,31.4,30.22,East,101,0.0,2.0,75,0.00,,---,0.00,VWS V14.01,2013-03-29 03:11:00,
2013-03-28 22:12:00,38.5,31.3,30.22,East,101,0.0,2.0,75,0.00,,---,0.00,VWS V14.01,2013-03-29 03:12:00,
2013-03-28 22:16:00,38.5,31.3,30.22,ESE,106,0.0,2.0,75,0.00,,---,0.00,VWS V14.01,2013-03-29 03:16:00,
2013-03-28 22:17:00,38.5,31.3,30.22,SSE,149,2.0,3.0,75,0.00,,---,0.00,VWS V14.01,2013-03-29 03:17:00,
2013-03-28 22:22:00,38.6,31.0,30.22,SE,138,0.0,3.0,74,0.00,,---,0.00,VWS V14.01,2013-03-29 03:22:00,
2013-03-28 22:23:00,38.6,31.0,30.22,SE,138,0.0,3.0,74,0.00,,---,0.00,VWS V14.01,2013-03-29 03:23:00,
2013-03-28 22:27:00,38.5,31.0,30.22,SE,127,1.0,3.0,74,0.00,,---,0.00,VWS V14.01,2013-03-29 03:27:00,
2013-03-28 22:28:00,38.5,31.0,30.22,SE,127,1.0,3.0,74,0.00,,---,0.00,VWS V14.01,2013-03-29 03:28:00,
2013-03-28 22:32:00,38.5,31.0,30.22,East,100,0.0,2.0,74,0.00,,---,0.00,VWS V14.01,2013-03-29 03:32:00,
2013-03-28 22:33:00,38.5,31.0,30.22,East,100,0.0,2.0,74,0.00,,---,0.00,VWS V14.01,2013-03-29 03:33:00,
2013-03-28 22:37:00,38.5,31.0,30.22,East,100,0.0,2.0,74,0.00,,---,0.00,VWS V14.01,2013-03-29 03:37:00,
2013-03-28 22:38:00,38.5,31.0,30.22,East,100,0.0,2.0,74,0.00,,---,0.00,VWS V14.01,2013-03-29 03:38:00,
2013-03-28 22:42:00,38.5,31.0,30.21,East,86,0.0,2.0,74,0.00,,---,0.00,VWS V14.01,2013-03-29 03:42:00,
2013-03-28 22:43:00,38.5,31.0,30.21,East,86,0.0,2.0,74,0.00,,---,0.00,VWS V14.01,2013-03-29 03:43:00,
2013-03-28 22:47:00,38.5,31.0,30.21,ENE,78,0.0,2.0,74,0.00,,---,0.00,VWS V14.01,2013-03-29 03:47:00,
2013-03-28 22:48:00,38.6,30.7,30.21,ENE,78,0.0,2.0,73,0.00,,---,0.00,VWS V14.01,2013-03-29 03:48:00,
2013-03-28 22:52:00,38.6,30.7,30.21,ENE,78,0.0,2.0,73,0.00,,---,0.00,VWS V14.01,2013-03-29 03:52:00,
2013-03-28 22:53:00,38.6,30.7,30.21,ENE,78,0.0,2.0,73,0.00,,---,0.00,VWS V14.01,2013-03-29 03:53:00,
2013-03-28 22:54:00,38.6,30.7,30.21,ENE,78,0.0,2.0,73,0.00,,---,0.00,VWS V14.01,2013-03-29 03:54:00,
2013-03-28 22:55:00,38.6,30.7,30.21,ENE,78,0.0,2.0,73,0.00,,---,0.00,VWS V14.01,2013-03-29 03:55:00,
2013-03-28 22:57:00,38.6,30.7,30.21,ENE,78,0.0,2.0,73,0.00,,---,0.00,VWS V14.01,2013-03-29 03:57:00,
2013-03-28 22:58:00,38.6,30.7,30.21,ENE,78,0.0,2.0,73,0.00,,---,0.00,VWS V14.01,2013-03-29 03:58:00,
2013-03-28 22:59:00,38.6,30.7,30.21,ENE,78,0.0,2.0,73,0.00,,---,0.00,VWS V14.01,2013-03-29 03:59:00,
2013-03-28 23:03:00,38.5,30.6,30.21,ENE,78,0.0,0.0,73,0.00,,---,0.00,VWS V14.01,2013-03-29 04:03:00,
2013-03-28 23:04:00,38.4,30.5,30.21,ENE,78,0.0,0.0,73,0.00,,---,0.00,VWS V14.01,2013-03-29 04:04:00,
2013-03-28 23:08:00,38.4,30.5,30.21,ENE,78,0.0,1.0,73,0.00,,---,0.00,VWS V14.01,2013-03-29 04:08:00,
2013-03-28 23:09:00,38.4,30.5,30.21,ENE,78,1.0,1.0,73,0.00,,---,0.00,VWS V14.01,2013-03-29 04:09:00,
2013-03-28 23:13:00,38.5,30.3,30.22,East,80,1.0,1.0,72,0.00,,---,0.00,VWS V14.01,2013-03-29 04:13:00,
2013-03-28 23:14:00,38.5,30.3,30.22,East,80,0.0,1.0,72,0.00,,---,0.00,VWS V14.01,2013-03-29 04:14:00,
2013-03-28 23:18:00,38.6,30.4,30.22,East,81,0.0,1.0,72,0.00,,---,0.00,VWS V14.01,2013-03-29 04:18:00,
2013-03-28 23:19:00,38.7,30.5,30.22,East,81,0.0,1.0,72,0.00,,---,0.00,VWS V14.01,2013-03-29 04:19:00,
2013-03-28 23:23:00,38.7,30.5,30.22,East,81,0.0,1.0,72,0.00,,---,0.00,VWS V14.01,2013-03-29 04:23:00,
2013-03-28 23:24:00,38.8,30.6,30.22,East,81,0.0,1.0,72,0.00,,---,0.00,VWS V14.01,2013-03-29 04:24:00,
2013-03-28 23:28:00,38.7,30.5,30.22,East,80,0.0,2.0,72,0.00,,---,0.00,VWS V14.01,2013-03-29 04:28:00,
2013-03-28 23:29:00,38.7,30.5,30.22,East,80,0.0,2.0,72,0.00,,---,0.00,VWS V14.01,2013-03-29 04:29:00,
2013-03-28 23:34:00,38.7,30.8,30.22,East,80,0.0,1.0,73,0.00,,---,0.00,VWS V14.01,2013-03-29 04:34:00,
2013-03-28 23:35:00,38.7,30.8,30.22,East,80,0.0,2.0,73,0.00,,---,0.00,VWS V14.01,2013-03-29 04:35:00,
2013-03-28 23:39:00,38.6,30.7,30.22,East,80,0.0,2.0,73,0.00,,---,0.00,VWS V14.01,2013-03-29 04:39:00,
2013-03-28 23:40:00,38.6,30.7,30.22,East,80,0.0,2.0,73,0.00,,---,0.00,VWS V14.01,2013-03-29 04:40:00,
2013-03-28 23:44:00,38.4,30.5,30.22,East,80,0.0,2.0,73,0.00,,---,0.00,VWS V14.01,2013-03-29 04:44:00,
2013-03-28 23:45:00,38.3,30.4,30.22,East,80,0.0,2.0,73,0.00,,---,0.00,VWS V14.01,2013-03-29 04:45:00,
2013-03-28 23:49:00,38.2,30.7,30.22,East,80,0.0,2.0,74,0.00,,---,0.00,VWS V14.01,2013-03-29 04:49:00,
2013-03-28 23:50:00,38.1,30.6,30.22,East,80,0.0,2.0,74,0.00,,---,0.00,VWS V14.01,2013-03-29 04:50:00,
2013-03-28 23:54:00,38.0,30.8,30.22,East,80,0.0,2.0,75,0.00,,---,0.00,VWS V14.01,2013-03-29 04:54:00,
2013-03-28 23:55:00,37.9,30.7,30.22,East,80,0.0,2.0,75,0.00,,---,0.00,VWS V14.01,2013-03-29 04:55:00,
2013-03-28 23:59:00,37.8,30.6,30.22,East,80,0.0,2.0,75,0.00,,---,0.00,VWS V14.01,2013-03-29 04:59:00,